[{"header": {"dx": 0.06612293990616946, "dy": 0.0552356325346848, "nx": 98, "ny": 59, "la1": 35.046912555036876, "la2": 31.78801023549047, "lo1": -121.43107172385933, "lo2": -114.95102361305473, "refTime": "2026041004", "parameterCategory": 1, "parameterNumber": 2}, "data": [14.75, 14.75, 14.75, 14.75, 14.75, 14.75, 14.75, 14.75, 14.75, 14.75, 13.86, 11.62, 12.52, 11.18, 10.28, 10.73, 10.73, 10.73, 10.73, 10.28, 8.4, 6.64, 7.67, 8.0, 8.22, 9.11, 8.91, 8.58, 7.82, 7.67, 7.67, 7.67, 7.07, 5.69, 6.0, 6.14, 7.15, 6.4, 5.37, 6.9, 7.6, 9.46, 11.18, 12.46, 13.15, 13.99, 15.93, 18.78, 15.72, 10.3, 8.44, 7.85, 7.95, 8.24, 8.54, 8.54, 8.23, 8.91, 10.47, 10.47, 10.99, 10.99, 10.23, 10.37, 10.37, 11.16, 11.88, 12.17, 12.79, 12.52, 12.21, 11.87, 11.37, 11.54, 11.96, 12.04, 12.09, 12.79, 13.77, 12.52, 10.28, 8.8, 9.39, 8.94, 8.94, 8.94, 8.49, 8.49, 8.49, 8.9, 9.97, 10.6, 10.5, 11.03, 12.04, 12.35, 10.58, 10.28, 14.3, 14.75, 14.75, 14.75, 14.75, 14.75, 15.2, 15.2, 14.75, 14.75, 13.41, 12.96, 11.62, 10.73, 11.62, 11.18, 10.28, 11.62, 10.28, 9.83, 10.28, 9.2, 7.81, 7.15, 7.2, 8.17, 8.6, 8.37, 8.22, 7.76, 6.44, 6.39, 5.37, 3.64, 3.47, 5.06, 6.9, 8.05, 8.24, 6.32, 7.87, 9.97, 11.92, 12.79, 14.18, 16.74, 19.67, 15.02, 10.87, 8.73, 8.22, 8.22, 8.22, 7.65, 7.51, 7.78, 8.83, 9.48, 10.47, 10.85, 11.31, 10.62, 10.23, 9.76, 10.37, 10.37, 11.16, 11.5, 11.77, 11.6, 11.6, 11.62, 12.3, 12.46, 12.63, 12.68, 12.27, 12.79, 13.77, 12.52, 10.28, 8.8, 9.39, 8.94, 8.94, 8.94, 8.49, 8.49, 8.49, 8.9, 9.97, 10.6, 10.5, 11.03, 12.04, 12.35, 10.58, 10.28, 14.3, 14.75, 14.75, 14.75, 14.75, 14.75, 15.2, 15.2, 15.2, 14.3, 12.52, 10.28, 11.62, 11.62, 10.73, 10.73, 11.18, 10.0, 5.0, 0.0, 0.0, 10.73, 11.18, 8.55, 7.67, 7.37, 7.44, 8.0, 8.67, 8.48, 6.44, 4.47, 3.55, 2.4, 2.12, 3.8, 6.44, 8.3, 9.39, 9.97, 8.22, 11.09, 13.8, 15.99, 18.91, 20.12, 14.22, 11.73, 9.48, 8.15, 8.49, 8.82, 8.53, 8.01, 7.28, 8.05, 8.83, 10.02, 10.47, 10.85, 11.31, 10.62, 10.23, 10.37, 9.84, 9.84, 9.76, 9.69, 10.48, 10.79, 11.64, 12.7, 12.8, 12.96, 12.81, 12.48, 12.49, 14.11, 13.84, 13.41, 10.28, 8.91, 8.94, 8.0, 8.48, 8.67, 7.94, 8.41, 8.73, 9.33, 11.79, 11.77, 10.73, 10.8, 11.45, 10.52, 9.26, 9.39, 14.11, 14.3, 14.75, 14.75, 14.75, 14.75, 15.2, 15.2, 14.75, 13.86, 11.45, 10.73, 12.07, 11.18, 11.18, 11.18, 11.62, 10.8, 5.4, 0.0, 0.0, 0.0, 0.0, 11.62, 8.93, 6.95, 6.45, 7.44, 7.44, 7.6, 3.8, 2.83, -0.0, 2.17, 4.0, 6.64, 9.33, 11.18, 11.62, 13.15, 14.94, 17.81, 18.96, 18.33, 15.59, 10.33, 9.73, 7.9, 7.81, 8.49, 8.82, 9.62, 8.85, 8.01, 7.28, 7.78, 8.54, 10.02, 10.47, 11.31, 10.62, 10.79, 10.01, 8.85, 8.85, 7.51, 8.61, 8.42, 8.85, 10.18, 11.9, 12.86, 13.64, 12.44, 11.95, 12.02, 12.03, 13.39, 15.65, 13.41, 9.83, 9.83, 8.94, 7.6, 3.6, 6.32, 8.67, 7.81, 8.0, 11.5, 12.79, 11.2, 10.55, 10.0, 8.72, 9.13, 9.39, 8.77, 14.11, 14.3, 14.75, 14.75, 14.75, 14.75, 15.2, 15.2, 14.75, 13.44, 11.45, 10.18, 11.62, 11.18, 9.6, 10.4, 11.03, 11.45, 5.4, 0.0, 0.0, 0.0, 0.0, 11.62, 7.59, 7.9, 6.95, 7.33, 6.64, 4.71, -0.0, -4.4, -3.68, -0.0, 10.0, 11.18, 11.18, 12.58, 15.43, 18.33, 15.99, 9.67, 7.82, 7.44, 7.54, 6.4, 6.97, 6.71, 8.22, 7.85, 8.01, 8.01, 7.28, 6.63, 7.51, 8.54, 9.17, 10.02, 10.47, 11.31, 11.12, 9.84, 8.01, 6.7, 6.63, 6.44, 7.36, 7.93, 9.02, 10.12, 11.6, 13.49, 14.24, 13.75, 12.09, 11.18, 11.13, 11.28, 14.26, 13.86, 9.83, 9.11, 8.38, 7.07, 0.0, 2.69, 6.98, 7.67, 9.67, 12.03, 11.42, 10.35, 8.93, 7.15, 8.4, 9.39, 8.0, 5.36, 14.11, 14.3, 14.3, 14.75, 14.75, 14.75, 15.2, 14.75, 14.75, 13.44, 11.45, 9.75, 10.0, 9.6, 10.0, 7.9, 8.22, 8.53, 5.4, 0.0, 0.0, -2.93, 0.0, 12.96, 12.07, 10.8, 11.03, 10.0, 9.6, 8.58, 5.21, -0.0, -0.0, 12.07, 12.72, 13.01, 12.58, 12.87, 16.91, -0.0, -3.16, -0.0, 2.45, 6.21, 6.63, 5.99, 6.48, 6.92, 7.41, 7.85, 6.76, 7.85, 7.24, 7.51, 8.54, 9.17, 9.84, 10.37, 11.5, 11.77, 10.99, 8.85, 5.4, 4.24, 4.65, 6.31, 7.36, 8.1, 8.97, 10.25, 12.03, 12.86, 13.49, 14.79, 14.42, 13.44, 10.73, 10.32, 10.18, 12.07, 8.91, 6.32, 6.7, 6.08, 1.95, 2.33, 5.76, 9.26, 11.34, 11.09, 9.88, 10.19, 6.64, 6.01, 9.39, 2.97, 3.32, 4.6, 14.11, 14.3, 14.3, 14.75, 14.75, 14.75, 14.75, 14.75, 14.03, 13.44, 11.45, 9.33, 9.6, 10.18, 10.8, 7.9, 6.7, 8.85, 7.51, 3.96, 2.13, 0.0, 0.0, 0.0, 10.75, 13.99, 14.42, 14.3, 12.96, 8.58, 7.59, 5.63, 5.46, 9.33, 11.03, 13.44, 12.79, 13.44, 13.86, -0.0, -10.12, -9.17, -4.24, -0.0, 5.48, 5.8, 5.6, 6.31, 6.48, 7.28, 7.02, 7.14, 7.68, 8.85, 8.85, 9.84, 10.55, 11.26, 11.85, 11.85, 9.77, 4.48, 3.19, 3.82, 4.12, 6.72, 7.89, 8.61, 9.76, 11.31, 12.58, 12.74, 13.07, 14.64, 16.0, 15.18, 13.49, 10.23, 9.83, 9.83, 8.3, 5.44, 6.11, 6.95, 5.32, 5.98, 7.36, 9.8, 10.54, 9.64, 8.24, 5.99, 6.01, 8.49, -2.17, -0.0, 2.39, 4.8, 13.67, 14.3, 14.3, 14.3, 14.75, 14.75, 14.75, 14.75, 14.03, 13.01, 9.3, 8.18, 9.2, 10.6, 11.2, 7.9, 6.7, 9.17, 9.17, 8.05, 9.48, 8.05, 6.0, 7.0, 9.12, 10.75, 11.06, 13.39, 14.75, 9.48, 10.8, 11.71, 12.14, 12.52, 10.96, 11.2, 11.6, 10.0, 11.03, 11.62, -9.17, -13.15, -14.39, -7.6, -0.0, 2.81, 3.34, 5.78, 6.7, 7.78, 7.14, 8.02, 8.32, 8.85, 9.42, 10.19, 10.04, 10.8, 11.71, 11.45, 8.22, 2.19, 1.58, 3.34, 5.4, 7.95, 9.8, 10.23, 11.03, 11.99, 12.58, 13.11, 13.74, 14.28, 15.17, 15.12, 13.49, 11.87, 12.24, 14.27, 15.61, 8.53, 5.46, 6.59, 6.92, 7.62, 8.42, 9.48, 9.64, 8.53, 6.2, 3.97, 7.6, -0.0, -1.67, -0.0, 3.11, 3.11, 13.72, 14.3, 14.3, 14.3, 14.75, 14.75, 14.75, 14.75, 14.03, 12.04, 10.4, 8.22, 5.8, 7.19, 8.85, 6.94, 5.8, 9.48, 9.48, 11.16, 11.99, 12.72, 13.15, 12.79, 10.37, 8.94, 6.95, 7.69, 15.65, 14.3, 13.59, 14.75, 13.59, 13.44, 12.27, 11.4, 10.84, 9.3, 8.55, 0.0, -12.96, -13.19, -10.43, -0.0, -0.0, -0.0, 3.04, 5.8, 7.18, 8.37, 8.83, 7.54, 8.53, 9.02, 9.08, 9.46, 9.67, 10.4, 11.03, 9.3, 3.53, 2.6, 2.23, 3.34, 6.2, 8.78, 10.36, 10.79, 11.3, 12.0, 12.47, 13.38, 14.3, 14.75, 14.3, 13.41, 11.59, 11.51, 13.75, 16.01, 16.52, 12.5, 5.21, 4.34, 5.9, 7.26, 8.07, 8.64, 8.38, 7.4, 5.06, 5.09, 6.58, 2.99, -0.0, -0.0, -0.0, -0.0, 13.72, 13.86, 14.3, 14.3, 14.75, 14.75, 14.75, 14.55, 14.11, 12.04, 10.73, 10.12, 8.53, 7.44, 6.2, 6.0, 5.31, 4.66, 5.48, 2.63, 4.81, 6.67, 9.8, 10.12, 10.12, 8.22, 6.64, 5.95, 4.66, 10.12, 12.65, 13.23, 11.06, 12.39, 12.07, 11.18, 10.52, 8.72, 10.4, 0.0, -12.96, -7.19, -0.0, 3.25, 3.25, 2.71, 2.82, 5.4, 9.17, 8.54, 8.32, 7.54, 7.78, 7.72, 8.22, 8.22, 8.82, 9.67, 10.4, 5.98, 3.21, 2.49, 3.68, 4.74, 5.92, 7.95, 9.21, 10.12, 10.8, 11.51, 12.52, 13.37, 14.27, 14.72, 14.27, 12.96, 11.58, 11.58, 12.04, 14.75, 17.41, 16.52, 10.3, 2.83, 3.63, 5.21, 6.83, 7.68, 8.12, 7.15, 6.0, 7.46, 6.66, 6.8, -0.0, -4.2, -4.6, -0.0, 13.72, 13.86, 14.3, 14.75, 14.75, 14.75, 14.75, 14.6, 14.11, 12.72, 11.6, 11.53, 10.65, 9.8, 10.12, 8.94, 8.05, 5.81, 5.35, 5.0, 5.01, 5.01, 6.31, 6.6, 7.32, 6.67, 6.17, 4.6, 4.81, 8.31, 11.12, 11.12, 8.53, 11.18, 7.9, 10.8, 11.46, 11.62, 10.8, 13.86, -0.0, -0.0, -0.0, 3.53, 5.95, 2.49, 2.1, 4.15, 5.75, 6.2, 5.64, 6.48, 6.48, 7.26, 6.15, 6.41, 7.14, 8.53, 9.66, 1.44, 0.86, 2.34, 4.08, 4.66, 4.05, 5.81, 7.93, 8.66, 8.85, 10.48, 11.72, 12.51, 13.99, 14.16, 13.83, 13.86, 12.93, 11.88, 12.08, 13.25, 15.2, 16.07, 14.75, 7.19, 2.83, 3.2, 5.21, 6.24, 7.76, 6.39, 6.96, 8.67, 7.89, 6.71, 5.69, -7.27, -6.95, -2.06, 13.72, 13.86, 14.3, 14.75, 14.75, 14.75, 14.75, 14.6, 14.16, 12.89, 12.33, 12.74, 12.81, 12.13, 11.16, 10.41, 10.94, 12.51, 12.87, 12.01, 10.89, 11.38, 10.3, 10.05, 10.73, 10.37, 10.01, 6.18, 8.73, 9.55, 10.52, 11.62, 8.22, 9.83, 9.6, 9.55, 10.28, 8.53, 3.96, 6.0, 4.38, -0.0, -0.0, 3.53, 3.25, -0.0, 2.6, 2.1, 3.98, 3.39, 3.77, 4.32, 4.32, 5.2, 4.62, 4.81, 6.72, 8.53, 9.77, -0.0, -0.0, 2.72, 4.34, 3.32, 1.83, 3.48, 5.49, 7.54, 8.15, 8.91, 10.12, 10.41, 11.92, 12.63, 12.93, 13.41, 12.9, 12.04, 11.72, 13.01, 13.86, 13.01, 11.87, 14.75, 0.0, 2.97, 4.74, 5.76, 6.32, 6.68, 7.61, 8.58, 7.73, 6.71, 8.24, -0.0, -6.95, -1.49, 13.72, 13.86, 14.3, 14.75, 14.75, 14.75, 14.75, 14.16, 14.16, 13.32, 13.32, 13.39, 13.19, 12.89, 13.68, 13.59, 13.57, 13.01, 12.58, 13.01, 13.07, 13.07, 13.28, 13.38, 13.41, 13.41, 13.41, 13.41, 12.07, 9.83, 10.73, 11.53, 10.79, 11.18, 10.28, 9.83, 8.23, 6.71, 3.68, 6.7, 6.94, 3.96, -0.0, -0.0, -0.0, -0.0, -0.0, 2.49, 4.4, 4.4, 1.75, 1.75, 2.28, 2.39, -0.0, 2.93, 4.65, 10.18, 10.4, -0.0, -1.98, 2.04, 3.12, 0.96, -0.0, 0.89, 2.56, 5.64, 7.5, 8.4, 9.73, 10.54, 10.81, 10.6, 12.02, 12.52, 12.96, 12.07, 12.52, 12.07, 10.41, 11.4, 12.27, 13.31, 11.87, 10.41, 7.59, 5.72, 6.4, 6.01, 6.98, 6.98, 6.94, 7.1, 8.49, 9.83, -0.0, -0.0, 13.72, 13.86, 13.86, 14.3, 14.75, 14.3, 14.3, 14.19, 14.19, 13.88, 13.88, 13.39, 13.19, 13.89, 14.07, 14.39, 14.86, 14.53, 14.18, 14.03, 14.03, 14.19, 14.73, 15.65, 15.65, 15.65, 14.29, 14.23, 13.78, 12.89, 11.61, 11.62, 12.07, 10.73, 10.28, 8.18, 7.51, 7.27, 7.27, 8.93, 9.67, 10.0, 7.9, 7.9, 4.4, -0.0, 3.6, 6.95, 5.95, 3.39, -0.0, -0.0, 13.41, 13.86, 12.52, -11.62, -0.0, 11.45, 13.09, 1.93, -4.48, -0.0, 1.48, -0.0, -0.0, -0.0, -0.0, 1.98, 5.8, 7.82, 9.16, 10.54, 10.04, 9.24, 9.76, 11.18, 5.95, 7.27, 8.18, 8.8, 9.33, 10.2, 12.47, 14.3, 12.39, 13.41, 12.83, 9.96, 7.67, 6.6, 7.51, 6.44, 6.7, 7.11, 8.9, 9.39, 7.47, 4.56, 13.72, 13.86, 13.86, 14.3, 14.3, 14.3, 14.3, 14.19, 14.19, 14.19, 13.96, 13.99, 13.99, 13.89, 14.94, 14.79, 15.06, 15.44, 15.47, 15.12, 14.94, 15.09, 15.62, 16.07, 16.09, 16.54, 16.09, 15.63, 15.18, 14.74, 13.84, 12.52, 12.07, 10.73, 10.28, 8.8, 8.23, 6.64, 8.94, 9.2, 10.41, 11.62, 10.73, 10.73, 6.64, 8.0, 8.0, 6.01, 4.0, -0.0, -0.0, 10.28, 9.83, 8.49, 8.49, -8.05, 0.0, 9.33, 12.52, 7.51, -3.07, -0.0, -0.0, -0.0, -0.0, -0.0, -0.0, -0.0, 4.8, 7.26, 8.22, 10.56, 10.73, 10.56, 10.28, 7.87, 5.1, 6.31, 8.03, 9.43, 9.81, 10.5, 10.41, 10.68, 9.89, 12.42, 13.34, 11.09, 9.29, 9.03, 9.54, 8.06, 6.79, 7.45, 8.01, 8.44, 6.7, 6.7, 13.75, 13.75, 13.86, 14.3, 14.3, 14.3, 14.3, 14.3, 14.22, 14.22, 14.4, 14.4, 13.99, 14.56, 14.53, 14.94, 15.54, 15.68, 16.24, 15.9, 15.82, 15.98, 15.99, 16.52, 16.54, 16.54, 16.54, 16.09, 15.65, 15.2, 15.2, 15.2, 13.84, 11.62, 10.28, 8.48, 6.95, 6.95, 10.0, 10.58, 10.28, 10.73, 10.73, 9.83, 9.39, 8.49, 7.6, 2.54, -0.0, -0.0, -0.0, 8.49, 8.49, 8.49, 5.69, 8.05, 6.01, 8.18, 11.62, 6.97, 2.02, 2.6, 3.25, 6.95, 4.2, -0.0, -0.0, -0.0, 3.25, 6.44, 8.8, 10.25, 12.52, 11.4, 10.96, 5.75, 5.4, 9.16, 10.54, 10.65, 10.28, 10.66, 10.43, 10.58, 10.62, 7.81, 8.93, 9.54, 8.67, 8.87, 9.33, 6.85, 7.45, 8.01, 8.94, 8.8, 7.76, 7.76, 13.75, 13.75, 14.3, 13.86, 13.86, 14.3, 14.3, 14.75, 14.22, 14.22, 14.4, 14.4, 14.56, 14.56, 14.99, 14.7, 14.7, 15.69, 16.24, 16.33, 16.22, 15.82, 15.98, 16.09, 16.07, 16.07, 16.09, 16.09, 16.09, 16.54, 16.99, 16.99, 16.07, 14.22, 8.67, 8.48, 7.81, 9.6, 10.14, 10.28, 10.58, 8.94, 9.83, 8.49, 9.39, 8.0, 6.32, 2.69, -0.0, -0.0, 4.0, 4.2, 4.2, 6.64, 6.64, 9.39, 9.83, 10.28, 8.94, 6.97, 6.71, 7.27, 8.18, 7.81, 8.91, 8.05, 8.94, 8.49, -0.0, 9.55, 10.73, 10.43, 11.6, 9.86, 11.03, 2.54, 6.6, 10.18, 11.79, 11.95, 12.0, 11.66, 11.42, 11.02, 10.4, 9.54, 3.8, 6.79, 7.6, 8.06, 9.26, 7.89, 7.52, 8.49, 10.28, 9.21, 8.79, 8.79, 13.75, 13.75, 14.3, 14.3, 13.86, 13.86, 14.3, 14.3, 14.66, 14.66, 14.66, 14.9, 14.9, 14.56, 14.56, 14.66, 15.09, 15.61, 16.05, 16.35, 15.74, 15.78, 15.53, 15.2, 15.62, 16.07, 16.54, 16.52, 16.52, 17.37, 17.37, 17.81, 17.81, 16.0, 12.2, 8.33, 8.67, 9.97, 10.58, 10.18, 9.54, 9.39, 8.49, 8.49, 6.32, 6.64, 4.96, 4.96, 5.21, 4.2, 6.64, 5.46, 5.46, 6.95, 8.18, 8.8, 8.8, 8.82, 7.59, 7.9, 8.94, 9.2, 8.8, 9.11, 9.11, 8.49, 8.05, 6.01, 4.4, 10.0, 12.27, 11.76, 12.51, 14.75, 11.38, 6.54, 9.2, 12.29, 13.87, 13.64, 13.37, 13.15, 13.05, 12.14, 10.84, 8.94, 6.32, 3.8, 5.1, 9.55, 9.83, 8.49, 7.6, 8.94, 10.28, 9.76, 9.33, 9.33, 13.75, 13.75, 13.86, 14.3, 13.86, 13.86, 14.3, 14.3, 14.75, 14.66, 14.68, 14.9, 15.34, 15.34, 14.56, 16.48, 14.13, 15.09, 15.39, 15.15, 15.49, 15.55, 15.04, 16.22, 15.14, 16.46, 13.76, 16.79, 16.99, 15.75, 17.1, 17.68, 17.79, 17.34, 15.53, 12.14, 8.95, 8.24, 8.99, 10.6, 10.08, 10.28, 10.28, 8.8, 8.18, 6.95, 6.95, 6.64, 6.64, 7.81, 6.95, 5.46, 6.95, 6.95, 6.95, 8.23, 8.43, 9.2, 9.58, 9.58, 9.96, 9.97, 9.64, 8.24, 8.67, 8.49, 8.49, 8.48, 7.56, 11.09, 13.86, 15.54, 18.37, 18.52, 17.02, 15.36, 15.27, 15.02, 15.54, 15.55, 14.28, 14.3, 13.86, 12.52, 11.62, 10.28, 10.28, 11.18, 4.8, 10.73, 8.8, 9.03, 8.89, 8.94, 9.83, 9.83, 10.28, 10.28, 13.75, 13.75, 13.75, 13.86, 13.86, 13.86, 14.3, 14.3, 14.75, 14.68, 14.68, 15.12, 15.34, 15.34, 14.99, 14.56, 14.13, 13.99, 15.04, 15.11, 16.66, 15.02, 14.39, 15.24, 14.79, 15.54, 15.69, 15.36, 16.54, 16.73, 17.31, 17.33, 17.41, 17.4, 16.95, 15.05, 12.58, 11.11, 9.89, 8.41, 8.94, 9.39, 9.21, 8.91, 8.17, 9.96, 8.8, 8.8, 8.4, 8.4, 7.81, 7.81, 6.64, 6.64, 6.32, 6.64, 8.38, 7.68, 9.55, 10.52, 10.28, 9.83, 9.83, 9.39, 8.49, 8.24, 8.94, 9.39, 10.28, 11.57, 12.89, 15.35, 18.39, 19.73, 18.7, 16.86, 15.02, 13.33, 15.01, 14.99, 15.09, 15.08, 14.62, 13.23, 12.01, 11.18, 9.97, 8.93, 9.3, 8.93, 10.41, 11.53, 11.62, 9.83, 9.39, 10.28, 10.28, 10.28, 13.75, 13.75, 13.75, 13.86, 13.86, 13.86, 13.86, 14.3, 14.75, 15.12, 14.68, 15.12, 15.34, 15.34, 15.39, 15.09, 14.23, 14.13, 12.04, 13.89, 16.27, 15.69, 15.06, 13.9, 15.19, 15.56, 15.44, 16.73, 17.31, 17.85, 17.88, 17.43, 17.43, 17.43, 16.99, 16.54, 14.71, 12.93, 11.6, 10.26, 9.39, 9.81, 9.81, 9.7, 9.06, 10.18, 9.13, 9.13, 8.72, 8.4, 8.0, 7.44, 7.44, 6.64, 5.9, 5.36, 6.58, 6.69, 9.2, 9.83, 9.83, 9.83, 9.83, 9.83, 8.48, 7.44, 7.81, 7.87, 8.38, 9.3, 10.12, 13.03, 16.85, 19.69, 18.75, 15.52, 11.03, 11.7, 12.16, 13.64, 14.75, 15.41, 15.17, 14.3, 13.41, 11.57, 10.41, 8.99, 9.75, 9.55, 9.39, 12.45, 12.47, 9.8, 9.16, 9.39, 9.39, 9.39, 13.75, 13.75, 13.75, 13.75, 13.86, 13.86, 13.86, 14.3, 14.75, 15.2, 15.12, 15.12, 15.12, 15.39, 15.39, 15.39, 14.66, 14.23, 13.62, 15.02, 16.0, 16.12, 15.61, 15.27, 16.0, 17.35, 17.17, 16.44, 16.51, 16.99, 17.43, 17.43, 17.43, 17.43, 16.96, 16.96, 15.65, 13.86, 12.52, 11.18, 10.28, 9.83, 9.36, 9.36, 8.82, 7.76, 10.14, 9.64, 9.11, 8.67, 7.6, 7.6, 7.07, 4.96, 4.0, 3.65, 3.45, 4.8, 7.59, 9.54, 8.94, 9.39, 9.39, 9.39, 6.64, 5.21, 4.2, 2.39, 1.69, 2.19, 3.32, 9.8, 14.74, 17.72, 8.53, 7.34, 9.01, 10.0, 10.08, 10.3, 12.26, 13.91, 15.08, 14.3, 13.82, 11.59, 10.23, 9.33, 9.39, 11.09, 11.18, 11.33, 11.11, 8.67, 8.43, 8.49, 8.94, 8.94, 13.75, 13.75, 13.75, 13.77, 13.86, 13.86, 14.3, 14.3, 14.75, 15.2, 15.2, 15.12, 15.57, 15.58, 15.39, 15.39, 14.95, 14.31, 14.42, 15.9, 16.33, 15.74, 14.86, 14.86, 16.22, 17.14, 17.76, 17.33, 16.96, 16.07, 16.54, 16.54, 16.54, 16.54, 16.51, 16.51, 16.07, 14.73, 12.94, 11.6, 10.73, 10.28, 9.81, 8.92, 7.95, 7.5, 9.7, 9.39, 8.94, 8.24, 7.81, 7.07, 6.01, 4.71, 2.17, 1.75, 1.33, 3.61, 6.87, 7.44, 8.94, 8.94, 9.39, -0.0, -0.0, -0.0, 1.84, -0.0, -0.0, -3.49, -3.53, 6.94, 18.37, 16.58, 7.9, 0.0, 4.52, 7.2, 8.06, 8.51, 9.23, 10.92, 12.39, 13.32, 13.72, 12.03, 10.28, 9.34, 9.92, 11.33, 12.41, 10.68, 9.66, 8.85, 8.49, 8.33, 8.38, 8.38, 13.75, 13.75, 13.75, 13.75, 13.86, 13.86, 13.86, 14.3, 14.75, 15.2, 15.2, 15.57, 15.57, 15.58, 15.58, 15.39, 15.39, 14.31, 15.18, 15.68, 16.17, 16.66, 15.55, 14.25, 14.94, 16.29, 17.33, 17.33, 17.41, 16.96, 16.07, 16.09, 16.09, 16.09, 16.07, 16.07, 15.98, 15.09, 13.32, 11.54, 10.26, 9.82, 10.26, 10.26, 8.91, 7.57, 9.83, 9.39, 8.94, 8.67, 8.67, 7.6, 6.01, 4.71, 2.69, 2.06, -0.0, -0.0, 6.17, 8.93, 8.06, 6.01, -8.49, -2.06, -1.75, -0.0, 1.33, 1.93, -0.0, -3.11, -10.28, 14.13, 17.86, 18.75, 17.1, 14.3, 0.0, 3.44, 6.95, 7.01, 7.69, 8.58, 9.8, 10.91, 11.41, 10.4, 9.9, 8.95, 8.4, 9.16, 9.26, 9.32, 9.39, 8.94, 8.49, 8.49, 8.82, 8.82, 13.75, 13.75, 13.75, 13.77, 13.77, 13.77, 13.86, 14.3, 14.75, 15.2, 15.2, 15.2, 15.57, 15.58, 15.58, 15.58, 15.43, 14.99, 14.81, 15.68, 15.74, 16.66, 16.41, 15.98, 15.18, 15.41, 16.76, 17.33, 17.34, 16.96, 16.96, 16.54, 15.65, 15.65, 16.07, 16.07, 16.07, 15.54, 14.21, 11.99, 10.21, 9.76, 9.75, 10.26, 9.81, 9.39, 8.05, 8.49, 8.94, 9.34, 8.73, 10.08, 7.6, 6.7, 4.71, 2.69, -0.0, -0.0, 6.32, 9.21, 9.54, 8.49, -8.0, -4.2, -1.54, -0.0, -0.0, 1.33, -0.0, 10.28, 6.71, 11.6, 16.5, 17.7, 18.74, 18.48, 17.78, 16.99, 8.85, 5.4, 6.31, 7.77, 9.58, 10.75, 9.89, 9.04, 8.82, 7.82, 8.3, 8.77, 8.18, 9.54, 9.7, 9.39, 8.94, 8.94, 8.3, 8.3, 13.75, 13.75, 13.75, 13.77, 13.77, 13.77, 13.86, 14.3, 14.75, 14.75, 15.2, 15.2, 15.65, 15.58, 15.58, 15.58, 15.59, 15.43, 15.46, 15.25, 15.3, 15.74, 16.66, 16.41, 15.98, 15.61, 15.85, 16.76, 17.33, 17.34, 16.96, 16.96, 16.54, 16.54, 16.09, 16.07, 16.07, 16.07, 15.54, 13.32, 11.01, 10.11, 9.64, 9.62, 10.18, 10.26, 9.83, 8.49, 8.94, 9.39, 9.35, 8.45, 9.64, 8.24, 7.07, 6.01, 5.69, 5.69, 8.05, 8.94, 9.7, 10.14, 6.32, -2.97, -0.0, -0.0, -0.0, -0.0, 2.49, 9.2, 10.41, 12.3, 13.38, 16.46, 17.44, 17.64, 17.85, 18.35, 15.87, 6.63, 5.8, 7.58, 8.96, 9.37, 8.53, 8.38, 8.05, 7.37, 8.94, 7.07, 8.4, 9.36, 10.41, 10.28, 9.54, 9.39, 7.81, 7.81, 13.75, 13.75, 13.75, 13.77, 13.77, 13.77, 13.86, 13.86, 14.3, 14.75, 15.2, 15.2, 15.65, 15.2, 15.58, 15.58, 15.59, 15.43, 15.46, 15.46, 15.3, 15.3, 15.78, 16.22, 16.22, 16.26, 15.82, 16.29, 16.88, 16.88, 16.96, 16.96, 16.96, 16.96, 16.54, 16.54, 16.54, 16.51, 16.51, 15.53, 13.62, 11.84, 10.37, 9.5, 10.08, 10.19, 10.26, 9.39, 8.94, 8.94, 8.94, 8.94, 8.05, 7.54, 7.81, 7.21, 7.63, 7.6, 6.4, 7.6, 9.39, 9.33, 10.73, 2.83, -0.0, -0.0, -0.0, 3.25, 4.4, 9.75, 11.18, 10.68, 12.08, 13.86, 14.36, 14.68, 17.68, 17.66, 16.09, 8.22, 2.6, 6.05, 8.1, 8.1, 7.85, 7.9, 7.68, 7.37, 8.49, 8.48, 8.94, 10.28, 11.49, 11.57, 11.18, 10.73, 8.93, 8.93, 13.75, 13.75, 13.75, 13.77, 13.77, 13.77, 13.77, 13.86, 14.3, 14.3, 14.75, 15.2, 15.2, 15.2, 15.14, 15.14, 15.59, 15.59, 15.46, 15.46, 15.49, 15.3, 15.34, 15.34, 15.78, 15.78, 15.82, 15.82, 16.41, 16.43, 16.43, 16.43, 16.96, 16.96, 16.96, 16.54, 16.54, 16.99, 16.95, 15.95, 14.62, 12.68, 10.75, 9.26, 9.75, 9.39, 10.13, 9.83, 8.94, 8.94, 8.94, 8.49, 8.49, 7.6, 7.15, 7.6, 7.6, 7.6, 6.4, 6.8, 8.05, 8.94, 9.83, 5.21, -0.0, -0.0, 3.98, 7.27, 9.83, 10.28, 11.18, 12.0, 11.99, 11.99, 12.79, 14.21, 16.47, 16.07, 13.86, 10.27, 2.06, 4.04, 7.32, 7.67, 7.8, 8.53, 7.27, 7.07, 9.21, 9.83, 9.55, 10.75, 12.07, 12.39, 11.99, 11.21, 9.97, 9.97, 13.75, 13.75, 13.75, 13.77, 13.77, 13.77, 13.77, 14.3, 14.3, 14.3, 14.75, 15.2, 15.65, 15.65, 15.65, 15.14, 15.15, 15.15, 15.02, 15.02, 15.49, 15.49, 15.51, 15.34, 15.34, 15.51, 15.51, 15.95, 16.41, 16.41, 16.43, 16.43, 16.43, 16.43, 16.51, 16.51, 16.54, 16.99, 16.99, 16.5, 15.49, 13.25, 11.28, 9.33, 8.99, 9.13, 10.58, 11.62, 11.51, 9.36, 8.91, 8.9, 8.45, 8.01, 6.66, 6.64, 7.6, 7.6, 7.15, 7.6, 7.6, 8.85, 9.39, 2.28, -0.0, 1.45, 2.95, 6.17, 9.83, 9.75, 11.18, 12.45, 12.37, 12.1, 11.34, 13.51, 15.03, 14.33, 13.74, 12.07, 7.51, 3.32, 5.99, 7.23, 7.51, 7.59, 7.35, 7.9, 9.32, 9.09, 8.73, 11.28, 11.21, 12.58, 11.99, 11.38, 10.35, 10.35, 13.75, 13.75, 13.77, 13.77, 13.77, 13.77, 13.77, 14.23, 14.3, 14.3, 14.3, 15.2, 15.2, 15.65, 16.09, 15.58, 15.15, 15.15, 15.15, 15.02, 15.49, 15.49, 15.49, 15.49, 15.49, 15.51, 15.07, 15.51, 15.97, 15.97, 15.98, 15.98, 15.98, 15.98, 16.43, 16.51, 16.51, 16.54, 16.99, 16.99, 16.05, 14.14, 12.35, 9.68, 7.89, 9.64, 12.07, 13.39, 13.07, 12.27, 10.91, 8.73, 8.33, 7.55, 6.65, 6.51, 6.88, 6.88, 7.6, 7.15, 6.94, 8.48, 8.49, -0.0, -0.0, -0.0, -0.0, 6.44, 8.72, 9.64, 10.27, 11.56, 12.94, 13.65, 13.43, 14.13, 14.13, 13.03, 13.67, 13.82, 13.41, 11.8, 7.62, 7.36, 7.34, 8.97, 9.48, 9.76, 9.88, 10.01, 10.8, 11.87, 9.62, 10.99, 10.94, 11.04, 10.66, 10.66, 13.31, 13.31, 13.77, 13.77, 13.77, 13.77, 13.77, 14.23, 14.3, 14.75, 14.75, 14.3, 15.2, 15.2, 15.65, 15.65, 15.59, 15.59, 15.6, 15.46, 15.46, 15.49, 15.49, 15.49, 15.49, 15.49, 15.05, 14.72, 15.17, 15.62, 15.97, 15.54, 15.54, 15.53, 15.97, 16.06, 16.51, 16.54, 16.54, 16.99, 16.49, 15.15, 12.92, 10.69, 8.94, 10.08, 12.81, 14.21, 14.26, 13.33, 11.55, 9.33, 6.65, 6.51, 5.59, 5.16, 6.88, 6.99, 7.31, 6.94, 6.64, 8.24, 7.07, 2.83, 2.83, -0.0, -0.0, 6.95, 10.28, 10.14, 8.18, 10.18, 12.52, 14.75, 16.92, 16.02, 14.11, 12.03, 12.56, 15.12, 16.45, 16.51, 14.99, 13.59, 12.02, 11.38, 10.57, 11.44, 10.52, 11.6, 12.96, 10.12, 10.55, 10.41, 11.2, 11.41, 10.66, 10.66, 13.31, 13.31, 13.33, 13.77, 13.77, 13.77, 13.77, 14.23, 14.3, 14.75, 14.75, 14.75, 14.75, 15.65, 15.65, 15.65, 15.59, 16.04, 16.05, 16.05, 16.05, 16.05, 15.49, 15.49, 15.49, 15.49, 15.05, 14.27, 16.03, 14.72, 15.53, 15.97, 15.97, 15.53, 15.53, 16.06, 16.06, 16.54, 16.54, 16.54, 16.54, 15.59, 13.81, 11.14, 10.28, 10.96, 12.62, 14.73, 13.86, 12.52, 10.28, 8.01, 7.12, 6.66, 5.77, 4.3, 5.09, 6.57, 6.99, 6.57, 6.58, 7.6, 6.01, 6.01, 6.32, 6.01, 8.05, 6.64, 9.75, 10.18, 9.83, 7.27, 12.52, 15.2, 19.22, 20.32, 13.04, 9.36, 10.79, 13.28, 16.05, 16.91, 16.54, 16.09, 16.39, 15.77, 15.37, 13.54, 12.42, 12.83, 12.04, 10.19, 10.01, 10.73, 10.81, 11.02, 10.8, 10.8, 13.33, 13.33, 13.33, 13.77, 13.77, 13.77, 13.77, 14.22, 14.3, 14.75, 14.75, 14.75, 14.75, 14.75, 15.65, 15.65, 15.65, 15.59, 15.59, 16.05, 16.05, 16.05, 16.05, 15.61, 15.16, 15.05, 15.05, 14.16, 13.72, 15.59, 14.6, 15.51, 15.95, 15.95, 15.95, 16.05, 16.05, 16.54, 16.54, 16.54, 16.54, 16.04, 14.26, 12.03, 10.73, 11.6, 12.87, 13.83, 13.86, 11.6, 9.36, 8.91, 8.91, 8.01, 7.12, 6.22, 5.78, 5.09, 5.94, 6.02, 5.75, 7.21, 7.44, 7.2, 7.6, 8.05, 8.05, 7.6, 6.95, 10.52, 10.08, 3.39, 10.4, 13.7, 19.15, 24.08, 14.36, 5.4, 5.4, 12.04, 14.53, 16.07, 16.09, 16.54, 16.99, 17.84, 17.67, 15.96, 13.94, 12.96, 11.87, 10.8, 10.8, 11.2, 11.55, 11.2, 10.68, 10.68, 13.09, 13.09, 13.33, 13.33, 13.77, 13.77, 13.77, 14.22, 14.3, 14.75, 14.75, 15.2, 14.75, 14.75, 15.2, 15.65, 15.65, 15.65, 15.59, 16.05, 16.05, 16.49, 16.05, 16.05, 15.16, 15.16, 15.05, 14.6, 14.47, 14.47, 14.62, 15.07, 15.51, 15.51, 15.93, 16.05, 16.05, 16.09, 16.54, 16.54, 16.54, 16.54, 15.15, 12.93, 11.62, 11.62, 12.52, 13.83, 13.83, 12.04, 9.74, 9.29, 9.28, 8.82, 7.92, 7.04, 6.67, 6.23, 4.87, 4.92, 7.6, 7.63, 7.2, 7.6, 7.6, 7.6, 8.05, 7.2, 8.4, 10.28, 9.13, 9.67, 12.07, 12.72, 17.19, 22.34, 17.86, 14.3, 13.41, 13.44, 14.42, 15.43, 16.46, 16.92, 16.92, 17.39, 17.84, 16.05, 13.86, 12.35, 11.45, 11.21, 11.34, 11.64, 11.71, 11.27, 11.37, 11.37, 13.09, 13.09, 13.33, 13.33, 13.77, 13.77, 13.77, 14.22, 14.75, 14.75, 15.2, 15.2, 15.2, 14.75, 14.75, 15.2, 15.2, 15.2, 15.2, 15.59, 16.05, 16.05, 16.05, 16.05, 15.61, 15.16, 15.05, 14.6, 14.62, 15.07, 15.08, 15.07, 15.07, 15.07, 15.51, 15.49, 16.05, 16.05, 16.54, 16.54, 16.54, 16.09, 15.15, 13.37, 12.07, 11.62, 12.52, 13.41, 13.38, 12.93, 10.62, 10.16, 9.15, 8.67, 8.36, 7.48, 7.04, 6.67, 6.23, 5.36, 4.92, 8.05, 7.2, 7.2, 8.49, 8.49, 7.6, 8.49, 8.0, 9.39, 9.83, 11.03, 12.96, 13.29, 15.27, 17.43, 18.82, 17.04, 15.75, 15.65, 14.64, 15.0, 15.84, 16.09, 15.95, 16.08, 16.09, 13.84, 12.37, 11.84, 10.88, 10.46, 11.13, 11.28, 11.91, 11.91, 11.54, 11.54, 13.09, 13.09, 13.09, 13.33, 13.77, 13.77, 14.22, 14.22, 14.68, 14.75, 15.2, 15.2, 15.2, 14.75, 14.75, 15.2, 15.2, 15.2, 15.2, 15.65, 15.65, 16.05, 16.05, 16.05, 15.6, 15.16, 15.05, 14.6, 14.62, 15.07, 15.07, 15.07, 14.62, 14.62, 14.62, 15.05, 15.49, 15.61, 16.05, 16.09, 16.09, 16.09, 15.58, 13.36, 12.07, 11.62, 12.07, 12.96, 13.38, 12.93, 11.59, 10.16, 9.7, 9.06, 8.36, 7.89, 7.45, 7.01, 6.67, 5.81, 5.36, 5.36, 8.05, 7.6, 7.63, 8.94, 8.05, 8.49, 8.94, 8.94, 10.73, 9.75, 13.23, 13.38, 14.75, 15.2, 16.01, 17.44, 19.42, 20.56, 18.0, 14.77, 13.52, 13.82, 13.75, 13.41, 12.94, 11.91, 11.4, 10.91, 10.91, 10.46, 11.13, 11.44, 11.49, 12.03, 11.93, 11.93, 12.66, 12.66, 13.09, 13.33, 13.77, 13.77, 14.22, 14.22, 14.68, 14.75, 15.2, 15.2, 15.2, 15.2, 14.75, 14.75, 15.2, 15.2, 15.2, 15.65, 15.65, 15.6, 16.05, 16.05, 15.6, 15.05, 15.05, 14.6, 14.6, 15.07, 15.07, 15.07, 14.62, 14.62, 14.6, 14.6, 14.6, 15.05, 15.6, 16.04, 16.09, 16.09, 15.2, 12.88, 10.25, 10.73, 11.6, 12.49, 12.93, 12.93, 12.03, 11.02, 10.14, 9.68, 8.77, 7.89, 7.45, 7.42, 6.66, 6.22, 5.78, 5.32, 8.05, 7.6, 8.05, 8.94, 8.05, 8.49, 8.94, 8.94, 9.39, 9.2, 11.2, 14.47, 14.75, 14.22, 14.53, 16.46, 19.07, 21.34, 19.55, 14.59, 13.25, 12.71, 12.52, 12.47, 12.39, 11.05, 11.0, 10.96, 11.4, 11.4, 11.4, 12.02, 12.03, 11.62, 12.07, 12.04, 12.66, 12.66, 13.09, 13.33, 13.77, 13.77, 14.22, 14.22, 14.66, 14.75, 15.2, 15.2, 15.2, 15.2, 15.2, 14.75, 14.75, 15.2, 15.2, 15.65, 15.65, 15.6, 15.6, 16.05, 15.6, 15.05, 14.6, 14.6, 14.6, 14.6, 15.07, 14.62, 14.62, 14.6, 14.6, 14.6, 14.16, 15.05, 15.02, 15.59, 15.65, 16.09, 14.75, 12.07, 9.81, 10.73, 11.53, 12.27, 13.11, 12.81, 12.35, 11.46, 10.58, 9.68, 8.8, 8.33, 7.42, 7.42, 6.66, 6.22, 5.78, 5.32, 8.05, 7.15, 7.6, 8.49, 8.49, 8.05, 8.49, 8.49, 8.94, 10.28, 11.45, 13.82, 16.07, 14.75, 14.06, 14.84, 17.17, 19.2, 17.37, 15.2, 14.3, 13.41, 12.96, 12.92, 12.39, 11.49, 11.46, 11.46, 11.44, 11.57, 11.57, 12.02, 12.07, 12.07, 12.07, 12.07, 12.66, 12.66, 12.66, 13.09, 13.77, 13.77, 14.22, 14.22, 14.66, 14.75, 15.2, 15.2, 15.2, 15.2, 15.2, 14.75, 14.75, 14.75, 15.2, 15.2, 15.65, 15.59, 15.6, 15.6, 15.6, 15.05, 14.6, 14.6, 14.16, 14.16, 14.6, 14.6, 14.6, 14.42, 13.99, 14.42, 13.99, 14.14, 14.99, 15.15, 15.58, 15.57, 14.66, 11.98, 10.66, 12.05, 13.65, 13.82, 13.94, 13.67, 12.79, 11.88, 10.56, 10.12, 8.8, 8.33, 7.85, 7.42, 6.94, 6.65, 6.07, 5.64, 5.31, 7.63, 8.05, 8.05, 7.21, 7.63, 8.05, 8.49, 8.94, 8.94, 11.62, 12.96, 14.99, 14.7, 15.12, 15.12, 15.35, 14.79, 14.67, 14.75, 14.75, 14.27, 13.36, 12.92, 12.81, 11.93, 11.91, 11.93, 11.58, 11.57, 11.62, 12.07, 12.07, 12.07, 12.03, 12.07, 12.66, 12.66, 12.66, 13.09, 13.33, 13.77, 13.77, 14.22, 14.22, 14.75, 14.75, 14.75, 15.2, 15.2, 14.75, 14.75, 14.75, 14.75, 14.75, 15.2, 15.15, 15.15, 15.15, 15.6, 15.46, 15.46, 14.6, 14.16, 14.16, 14.16, 14.16, 14.6, 14.42, 14.42, 13.99, 13.99, 13.99, 13.7, 14.11, 14.51, 14.68, 15.12, 14.22, 12.22, 10.4, 12.18, 14.75, 15.25, 14.51, 14.25, 13.8, 12.47, 10.68, 9.64, 8.77, 8.33, 7.85, 7.37, 7.37, 6.94, 6.51, 5.64, 7.37, 6.79, 7.21, 7.63, 7.21, 8.06, 7.21, 7.63, 8.49, 8.0, 9.6, 10.6, 12.35, 14.75, 17.59, 18.31, 14.67, 11.76, 11.35, 12.52, 13.36, 12.81, 12.92, 12.47, 12.02, 11.91, 11.49, 11.59, 11.62, 11.62, 11.62, 12.07, 12.03, 12.03, 11.91, 11.91, 12.22, 12.22, 12.66, 12.66, 13.33, 13.33, 13.77, 14.22, 14.22, 14.3, 14.75, 14.75, 14.75, 14.75, 14.75, 14.75, 14.75, 14.75, 14.75, 14.75, 15.15, 15.15, 15.15, 15.15, 15.02, 15.02, 14.6, 14.16, 14.16, 13.72, 13.55, 13.55, 13.99, 13.99, 13.99, 13.55, 13.5, 13.07, 13.67, 14.07, 14.03, 14.03, 13.59, 11.99, 10.99, 12.33, 14.42, 15.15, 14.3, 13.86, 13.41, 12.07, 9.83, 9.39, 8.9, 8.44, 7.98, 7.98, 7.81, 7.37, 6.94, 6.28, 5.34, 7.37, 7.21, 7.6, 8.05, 7.63, 6.79, 8.05, 8.49, 8.06, 9.2, 9.13, 10.4, 13.01, 16.09, 20.05, 16.91, 12.07, 11.18, 11.53, 11.91, 12.41, 12.41, 12.03, 11.58, 11.59, 11.62, 11.62, 11.62, 11.62, 11.59, 11.59, 11.95, 11.93, 11.93, 11.93, 12.22, 12.22, 12.66, 12.66, 13.33, 13.33, 13.77, 13.77, 13.77, 14.3, 14.3, 14.75, 14.75, 14.75, 14.75, 14.75, 14.75, 14.75, 14.75, 14.7, 15.15, 15.15, 15.15, 15.02, 15.02, 15.02, 14.58, 14.14, 13.55, 13.55, 13.11, 13.11, 13.11, 13.55, 13.99, 13.11, 13.07, 13.01, 13.19, 13.19, 13.59, 13.59, 13.15, 11.64, 11.28, 12.58, 14.11, 14.25, 13.41, 12.52, 12.07, 11.18, 9.39, 9.39, 8.94, 8.94, 8.05, 8.05, 7.98, 7.98, 7.37, 7.12, 6.0, 6.8, 7.21, 7.6, 8.05, 8.05, 7.15, 7.6, 8.05, 8.06, 7.81, 8.55, 8.59, 9.66, 14.03, 17.41, 18.35, 16.27, 14.65, 14.47, 14.7, 13.7, 13.39, 12.52, 12.07, 12.07, 12.04, 12.05, 12.05, 11.53, 11.52, 11.8, 11.8, 11.8, 11.8, 11.8, 12.22, 12.22, 12.66, 12.88, 13.33, 13.33, 13.77, 13.77, 14.22, 14.3, 14.3, 14.75, 14.75, 14.75, 14.75, 14.75, 14.75, 14.75, 14.75, 14.7, 15.15, 15.15, 15.15, 15.02, 15.02, 15.02, 14.58, 14.14, 13.5, 13.11, 13.11, 13.11, 13.11, 12.89, 12.89, 12.89, 12.63, 13.01, 13.19, 13.15, 13.15, 13.15, 12.71, 11.44, 11.0, 11.91, 13.19, 13.36, 13.36, 12.02, 11.18, 10.28, 8.94, 8.94, 8.49, 8.49, 8.05, 8.05, 7.6, 7.98, 7.98, 7.37, 6.4, 5.43, 7.2, 8.05, 8.05, 7.15, 7.21, 6.8, 8.94, 8.06, 7.81, 8.03, 8.93, 10.27, 12.45, 14.72, 16.53, 16.44, 15.72, 16.99, 19.09, 17.94, 13.84, 13.41, 12.94, 12.85, 12.3, 11.84, 12.35, 10.89, 11.33, 11.54, 11.61, 11.18, 11.18, 11.18, 12.22, 12.22, 12.66, 12.88, 12.88, 13.33, 13.33, 13.77, 14.3, 14.3, 14.3, 14.3, 14.75, 14.75, 14.75, 14.75, 14.75, 14.75, 14.75, 14.69, 14.7, 15.15, 14.99, 15.02, 15.02, 15.02, 14.58, 13.94, 13.5, 13.55, 13.11, 12.46, 12.46, 12.46, 12.46, 12.39, 12.63, 12.58, 13.19, 12.71, 12.71, 12.71, 12.71, 11.44, 11.0, 11.88, 12.75, 12.91, 12.91, 12.02, 11.14, 9.8, 8.9, 8.46, 8.01, 8.05, 8.05, 8.05, 7.6, 7.6, 7.54, 7.54, 6.94, 6.28, 5.34, 8.49, 8.05, 7.15, 7.6, 7.81, 8.05, 8.06, 7.44, 8.8, 9.97, 10.73, 11.62, 12.93, 13.88, 13.03, 13.14, 17.35, 20.46, 18.37, 15.66, 14.21, 13.38, 13.21, 12.3, 12.18, 11.56, 10.5, 10.92, 11.45, 10.73, 10.85, 10.85, 10.85, 12.22, 12.22, 12.66, 12.88, 13.33, 13.33, 13.33, 13.86, 13.86, 14.3, 14.3, 14.3, 14.75, 14.75, 14.75, 14.75, 14.75, 14.75, 14.69, 14.69, 14.7, 15.15, 14.99, 14.99, 15.02, 15.02, 14.37, 13.94, 13.5, 13.5, 12.89, 12.46, 12.46, 12.04, 12.04, 11.96, 12.14, 12.31, 12.71, 12.71, 12.71, 12.71, 12.71, 11.84, 11.0, 11.88, 12.47, 12.45, 12.45, 11.57, 10.68, 9.79, 8.9, 8.46, 8.01, 8.01, 8.01, 7.55, 8.0, 7.55, 7.1, 7.1, 6.65, 6.07, 5.75, 8.49, 7.6, 8.05, 8.24, 7.63, 8.24, 7.6, 8.0, 8.91, 10.28, 10.73, 11.18, 12.45, 11.8, 10.12, 11.34, 15.67, 20.05, 19.61, 17.85, 15.69, 13.86, 13.23, 12.3, 10.8, 10.16, 10.62, 10.21, 10.0, 10.17, 10.0, 10.0, 10.0, 12.22, 12.22, 12.88, 12.88, 12.88, 13.33, 13.77, 13.86, 13.86, 13.86, 14.3, 14.3, 14.3, 14.75, 14.75, 14.75, 14.75, 14.75, 14.69, 14.25, 14.25, 14.55, 14.99, 14.99, 15.02, 14.81, 14.37, 13.94, 13.5, 13.25, 12.89, 12.89, 12.46, 12.04, 11.96, 11.76, 11.71, 12.31, 12.27, 12.27, 12.45, 12.45, 12.27, 11.84, 11.0, 12.02, 12.45, 12.45, 12.01, 11.12, 10.68, 10.24, 9.35, 8.8, 7.89, 7.45, 7.56, 7.55, 7.55, 7.55, 7.55, 6.66, 6.21, 5.31, 4.92, 8.05, 7.6, 7.6, 8.05, 8.05, 8.94, 7.6, 8.0, 8.4, 9.83, 10.28, 10.73, 11.03, 10.24, 9.36, 10.85, 13.59, 16.63, 18.4, 19.74, 18.8, 16.48, 12.95, 11.2, 9.82, 8.53, 8.82, 8.94, 9.2, 9.43, 9.65, 9.65, 9.65, 12.14, 12.14, 12.86, 12.86, 12.88, 13.33, 13.86, 13.86, 13.86, 14.3, 14.3, 14.3, 14.75, 14.75, 14.75, 14.75, 14.75, 14.69, 14.69, 14.69, 14.69, 14.55, 14.99, 14.99, 14.99, 14.37, 14.37, 13.94, 13.25, 12.82, 12.82, 12.82, 12.39, 11.96, 12.2, 11.71, 11.88, 11.88, 11.84, 12.45, 12.45, 12.45, 12.45, 11.84, 11.57, 12.45, 12.9, 12.45, 11.57, 10.68, 10.24, 9.79, 9.68, 9.24, 8.33, 7.89, 7.45, 6.98, 6.98, 7.42, 7.42, 6.66, 5.77, 5.31, 4.85, 6.51, 6.51, 7.15, 7.6, 8.49, 8.94, 8.91, 6.64, 8.4, 8.4, 9.83, 10.28, 8.93, 6.98, 8.82, 10.41, 11.58, 12.27, 16.1, 19.87, 20.38, 13.86, 11.49, 10.68, 10.35, 7.44, 6.76, 7.36, 8.35, 9.04, 8.68, 8.68, 8.68, 12.42, 12.42, 12.86, 12.86, 12.86, 13.33, 13.86, 13.86, 13.86, 14.3, 14.3, 14.3, 14.75, 14.75, 14.75, 14.75, 14.68, 14.68, 14.69, 14.69, 14.69, 14.51, 14.99, 14.99, 14.31, 14.37, 14.37, 13.94, 13.25, 13.25, 12.82, 12.82, 12.39, 12.2, 12.14, 11.91, 11.88, 11.84, 12.01, 12.01, 12.01, 12.01, 12.01, 12.01, 12.01, 12.45, 12.9, 12.45, 11.57, 10.68, 10.23, 9.68, 9.68, 8.8, 8.33, 7.89, 7.89, 7.42, 6.98, 6.98, 6.98, 6.11, 5.64, 5.16, 4.85, 6.07, 5.21, 6.36, 7.15, 8.05, 8.49, 8.94, 8.91, 6.95, 8.4, 8.4, 9.83, 6.95, 5.95, 7.9, 9.82, 10.41, 10.94, 13.64, 19.56, 18.76, 14.75, 10.25, 8.72, 9.2, 9.58, 7.27, 6.2, 7.72, 8.35, 8.02, 8.02, 8.02, 12.42, 12.42, 12.42, 12.86, 12.86, 12.96, 13.41, 13.86, 13.86, 14.3, 14.3, 14.75, 14.75, 14.75, 14.75, 14.68, 14.68, 14.68, 14.68, 14.69, 14.51, 14.51, 14.55, 14.31, 14.31, 14.31, 14.37, 13.67, 13.25, 13.25, 12.82, 12.82, 12.63, 12.58, 12.14, 11.88, 11.88, 11.4, 11.57, 11.57, 12.0, 12.0, 12.0, 11.57, 12.01, 12.45, 12.9, 12.45, 12.01, 11.12, 10.08, 9.68, 9.68, 8.63, 8.14, 7.71, 7.63, 7.21, 7.21, 6.79, 6.79, 6.36, 5.86, 5.16, 5.16, 4.6, 5.58, 3.47, 2.12, 5.06, 5.37, 8.06, 8.91, 8.18, 6.95, 6.64, 9.83, 6.95, 4.6, 7.9, 9.97, 10.09, 11.44, 14.19, 21.9, 19.67, 15.65, 11.15, 7.89, 6.01, 8.72, 8.55, 6.87, 6.5, 6.98, 7.27, 7.27, 7.27, 12.42, 12.42, 12.42, 12.86, 12.86, 12.96, 13.41, 13.86, 13.86, 14.3, 14.3, 14.75, 14.75, 14.75, 14.75, 14.68, 14.68, 14.68, 14.68, 14.47, 14.51, 14.51, 14.31, 14.31, 14.31, 14.31, 13.67, 13.67, 13.25, 12.82, 12.82, 12.63, 12.58, 12.58, 12.31, 11.88, 11.84, 11.4, 11.4, 11.4, 11.35, 11.35, 11.55, 11.55, 11.55, 11.57, 12.01, 12.01, 12.01, 10.96, 10.52, 10.12, 9.68, 9.06, 8.56, 8.06, 7.63, 7.63, 7.21, 7.21, 6.54, 6.13, 5.86, 5.44, 5.34, 4.84, 4.74, 3.0, 2.12, 0.0, 2.4, 3.6, 5.1, 6.32, 4.4, 4.2, 6.64, 9.83, 9.2, 9.6, 9.3, 10.4, 11.78, 19.21, 22.34, 20.55, 16.97, 12.96, 10.66, 7.51, 7.28, 7.81, 6.64, 4.83, 6.14, 6.95, 6.95, 6.95, 12.42, 12.42, 12.42, 12.42, 12.96, 12.96, 13.41, 13.41, 13.86, 13.86, 14.3, 14.3, 14.75, 14.75, 14.68, 14.68, 14.68, 14.68, 14.47, 14.9, 14.51, 14.51, 14.23, 14.31, 14.31, 13.88, 13.57, 13.57, 13.15, 13.01, 13.01, 12.58, 12.58, 12.35, 12.31, 11.88, 11.84, 11.4, 11.4, 10.91, 11.35, 11.35, 11.35, 11.35, 11.11, 11.11, 11.57, 11.4, 11.4, 10.96, 10.52, 10.08, 9.49, 9.49, 8.99, 8.48, 8.06, 7.76, 7.35, 6.8, 6.4, 6.4, 6.0, 5.6, 5.43, 4.81, 4.81, 4.01, 3.97, 2.26, 1.84, 2.69, 3.15, 2.54, 0.0, 0.0, 0.0, 9.83, 10.28, 10.73, 10.18, 10.84, 13.83, 18.33, 21.46, 20.12, 16.99, 13.84, 12.37, 10.27, 8.93, 8.4, 6.28, 5.1, 5.36, 5.63, 5.63, 5.63, 12.42, 12.42, 12.42, 12.52, 12.52, 12.96, 13.41, 13.86, 13.86, 13.86, 13.86, 14.3, 14.75, 14.68, 14.68, 14.68, 14.68, 14.47, 14.47, 14.9, 14.9, 14.51, 14.23, 14.23, 13.88, 13.88, 13.88, 13.44, 13.44, 13.01, 13.01, 12.58, 12.58, 12.31, 12.31, 11.88, 11.84, 11.4, 11.4, 10.91, 10.91, 11.35, 11.35, 10.91, 10.91, 10.47, 10.47, 10.52, 10.52, 10.52, 10.52, 9.85, 9.49, 9.49, 9.13, 8.58, 8.17, 8.17, 7.76, 6.8, 6.8, 6.07, 5.69, 5.69, 5.82, 5.46, 5.09, 4.43, 4.29, 4.29, 4.46, 4.71, 2.83, 0.0, 0.0, 0.0, 0.0, 0.0, 7.27, 9.2, 10.28, 10.73, 12.93, 16.47, 20.05, 18.76, 15.65, 12.42, 11.28, 9.48, 8.41, 8.47, 7.15, 4.0, 4.2, 3.8, 3.8, 3.8, 12.44, 12.44, 12.52, 12.52, 12.52, 12.52, 12.96, 13.41, 13.41, 13.41, 13.86, 14.3, 14.22, 14.66, 14.68, 14.68, 14.47, 14.47, 14.47, 14.9, 14.9, 14.66, 14.66, 14.23, 13.8, 13.88, 13.88, 13.44, 13.44, 13.01, 12.58, 12.58, 12.08, 12.31, 12.31, 11.84, 11.84, 11.4, 10.91, 10.91, 10.91, 10.91, 10.91, 10.91, 10.47, 10.47, 10.47, 10.47, 10.08, 10.08, 9.85, 9.85, 9.66, 9.24, 9.13, 8.72, 8.58, 8.17, 7.6, 6.82, 6.82, 6.44, 6.07, 5.69, 5.46, 5.46, 5.09, 5.09, 4.43, 5.37, 5.37, 5.69, 6.01, 8.94, 8.94, 8.94, 0.0, 0.0, 2.49, 3.25, 7.27, 9.96, 12.01, 14.3, 18.31, 18.76, 15.2, 12.05, 9.85, 7.9, 6.44, 6.98, 6.17, 2.28, 2.28, 2.28, 2.28, 2.28, 12.44, 12.44, 12.52, 12.52, 12.96, 12.96, 12.96, 12.96, 13.41, 13.41, 13.86, 14.22, 14.22, 14.66, 14.68, 14.68, 14.47, 14.47, 14.47, 14.47, 14.9, 14.56, 14.66, 14.23, 13.8, 13.8, 13.8, 13.37, 13.01, 13.01, 12.58, 12.08, 12.08, 12.31, 11.88, 11.84, 11.84, 11.4, 11.35, 10.91, 10.91, 10.91, 10.91, 10.91, 10.47, 10.47, 10.47, 10.04, 10.08, 9.85, 9.85, 9.55, 9.66, 9.24, 9.13, 9.13, 8.58, 8.17, 7.58, 7.2, 6.82, 6.44, 6.44, 6.07, 5.82, 5.43, 5.43, 5.06, 4.42, 4.47, 4.56, 4.22, 5.69, 0.0, 0.0, 6.32, 4.2, 0.0, 0.0, 0.0, 4.6, 7.27, 10.0, 12.68, 16.07, 18.33, 16.09, 13.41, 9.35, 6.79, 1.75, 2.02, 4.8, 4.6, 2.28, 2.28, 2.28, 2.28, 12.52, 12.52, 12.52, 12.52, 12.96, 12.96, 12.96, 13.41, 13.41, 13.41, 13.86, 13.77, 14.22, 14.66, 14.66, 14.47, 14.47, 14.47, 14.47, 14.9, 14.9, 14.56, 14.66, 14.23, 13.8, 13.8, 13.37, 13.37, 12.94, 12.51, 12.51, 12.08, 12.08, 11.88, 11.84, 11.84, 11.4, 11.35, 11.35, 10.91, 10.91, 10.91, 10.84, 10.41, 10.41, 10.47, 10.47, 10.04, 9.85, 9.85, 9.85, 9.13, 9.66, 9.24, 9.13, 9.13, 8.58, 7.96, 7.58, 7.2, 7.2, 6.82, 6.82, 6.08, 5.72, 5.43, 5.06, 5.06, 4.71, 4.22, 3.91, 2.82, 1.73, 0.0, 0.0, 2.17, 4.2, 4.2, 1.93, 0.0, 2.49, 6.17, 8.59, 11.55, 14.4, 17.36, 16.52, 14.3, 11.18, 8.24, -4.2, -1.93, 2.02, 2.49, 0.0, 0.0, 0.0, 0.0, 12.52, 12.52, 12.52, 12.52, 12.96, 12.96, 12.96, 13.41, 13.41, 13.41, 13.77, 13.77, 14.22, 14.22, 14.4, 13.96, 14.03, 14.47, 14.47, 14.47, 14.9, 14.56, 14.56, 14.66, 13.8, 13.37, 13.37, 13.37, 12.94, 12.51, 12.51, 12.08, 12.08, 11.84, 11.84, 11.84, 11.84, 11.35, 11.35, 10.91, 10.91, 10.84, 10.41, 10.41, 10.41, 10.47, 10.04, 9.75, 9.75, 9.85, 9.85, 9.13, 9.13, 9.24, 8.8, 8.4, 8.21, 7.96, 7.96, 7.58, 7.2, 7.2, 6.44, 6.08, 6.08, 5.38, 5.06, 5.37, 5.05, 4.71, 3.79, 3.4, 0.0, 0.0, 0.0, 0.0, 2.17, 2.97, 4.2, 0.0, 2.49, 6.44, 8.59, 10.99, 13.07, 16.69, 16.82, 14.74, 13.41, 8.94, -6.64, -7.87, -3.11, 0.0, 9.39, 9.39, 9.39, 9.39, 12.52, 12.52, 12.52, 12.52, 12.52, 12.96, 12.96, 12.96, 13.41, 13.33, 13.77, 13.77, 14.22, 14.22, 13.96, 13.96, 13.96, 14.03, 14.47, 14.47, 14.13, 14.56, 14.56, 14.13, 13.8, 13.37, 13.37, 12.94, 12.94, 12.51, 12.51, 12.08, 11.56, 11.56, 11.56, 11.56, 11.45, 11.03, 11.03, 11.35, 10.84, 10.84, 10.84, 10.41, 10.41, 10.05, 9.75, 9.75, 9.75, 9.85, 9.13, 9.13, 9.13, 8.8, 8.8, 8.4, 8.21, 7.58, 7.96, 7.58, 7.15, 7.07, 6.7, 6.7, 5.72, 5.72, 5.37, 5.37, 5.35, 5.37, 4.29, 3.6, 2.12, 3.4, 3.2, 2.54, 2.69, 4.2, 4.2, 3.11, 3.25, 6.7, 8.49, 10.73, 12.98, 15.61, 16.37, 14.67, 13.41, 12.07, 8.4, -8.4, -9.83, -0.0, -0.0, 4.96, 4.96, 4.96, 12.52, 12.52, 12.96, 12.96, 12.96, 12.96, 12.96, 12.96, 12.88, 13.33, 13.33, 13.77, 14.22, 13.96, 13.96, 13.96, 13.96, 13.96, 13.96, 14.47, 14.13, 14.13, 14.13, 14.13, 13.7, 13.37, 13.37, 12.94, 12.94, 12.51, 12.51, 11.99, 11.56, 11.56, 11.56, 11.13, 11.03, 11.03, 11.03, 10.46, 10.46, 10.46, 10.84, 10.05, 10.05, 10.05, 10.18, 9.75, 9.4, 9.4, 9.13, 8.8, 8.8, 8.8, 8.4, 8.21, 8.21, 7.58, 7.58, 7.15, 7.44, 7.07, 7.07, 6.35, 6.35, 5.37, 5.37, 5.35, 5.35, 5.05, 4.71, 4.29, 2.99, 3.4, 0.0, 3.4, 0.0, 0.0, 0.0, 3.11, 3.82, 6.87, 8.49, 9.89, 11.6, 14.21, 15.47, 14.67, 13.39, 12.52, 10.73, 8.8, 9.39, 2.83, 4.0, 6.32, 6.32, 6.32, 12.52, 12.52, 12.96, 12.96, 12.96, 12.96, 12.96, 12.96, 12.88, 13.33, 13.33, 13.77, 14.22, 13.96, 13.96, 13.96, 13.96, 13.96, 13.96, 14.47, 14.13, 14.13, 14.13, 14.13, 13.7, 13.37, 13.37, 12.94, 12.94, 12.51, 12.51, 11.99, 11.56, 11.56, 11.56, 11.13, 11.03, 11.03, 11.03, 10.46, 10.46, 10.46, 10.84, 10.05, 10.05, 10.05, 10.18, 9.75, 9.4, 9.4, 9.13, 8.8, 8.8, 8.8, 8.4, 8.21, 8.21, 7.58, 7.58, 7.15, 7.44, 7.07, 7.07, 6.35, 6.35, 5.37, 5.37, 5.35, 5.35, 5.05, 4.71, 4.29, 2.99, 3.4, 0.0, 3.4, 0.0, 0.0, 0.0, 3.11, 3.82, 6.87, 8.49, 9.17, 10.63, 12.14, 14.4, 14.67, 13.39, 12.96, 12.07, 9.39, 9.39, 7.81, 7.51, 7.51, 7.51, 7.51]}, {"header": {"dx": 0.06612293990616946, "dy": 0.0552356325346848, "nx": 98, "ny": 59, "la1": 35.046912555036876, "la2": 31.78801023549047, "lo1": -121.43107172385933, "lo2": -114.95102361305473, "refTime": "2026041004", "parameterCategory": 1, "parameterNumber": 3}, "data": [0.0, 0.0, 0.0, 0.0, 0.0, 0.0, 0.0, 0.0, 0.0, 0.0, 0.0, 0.0, 0.0, 0.0, 0.0, 0.0, 0.0, 0.0, 0.0, 0.0, 4.2, 6.64, 4.6, 4.0, 3.52, 2.28, 2.97, 3.81, 4.34, 4.6, 4.6, 4.6, 4.71, 3.55, 3.0, 1.23, 0.0, -3.2, -5.37, -4.14, -3.8, -2.7, -3.19, -3.56, -5.63, -7.0, -7.08, 0.0, 9.43, 12.36, 9.84, 9.16, 9.08, 9.42, 9.76, 9.76, 10.59, 10.02, 8.38, 8.38, 7.69, 7.69, 7.96, 7.78, 7.78, 7.44, 7.13, 6.64, 5.33, 4.81, 4.36, 3.96, 4.06, 3.55, 3.68, 3.44, 3.23, 2.13, 1.53, 0.0, 0.0, 4.4, 0.0, 0.0, 0.0, 0.0, 0.0, 0.0, 0.0, -0.81, -2.49, -3.53, -3.82, -4.9, -3.44, -2.06, -1.76, 0.0, 0.0, 0.0, 0.0, 0.0, 0.0, 0.0, 0.0, 0.0, 0.0, 0.0, 0.0, 0.0, 0.0, 0.0, 0.0, 0.0, 0.0, 0.0, 0.0, 0.0, 0.0, 4.6, 5.21, 5.36, 3.6, 2.33, 2.46, 3.14, 3.52, 4.44, 4.83, 5.59, 5.37, 5.09, 5.21, 5.06, 4.14, 0.0, -2.06, -6.32, -5.9, -5.98, -5.11, -6.4, -8.51, -6.28, 0.0, 11.27, 13.05, 10.18, 8.22, 8.22, 8.22, 8.75, 10.01, 10.37, 10.09, 9.48, 8.38, 7.89, 7.2, 7.43, 7.96, 8.54, 7.78, 7.78, 7.44, 6.9, 6.42, 5.8, 5.8, 4.65, 4.1, 3.56, 2.92, 2.72, 2.45, 2.13, 1.53, 0.0, 0.0, 4.4, 0.0, 0.0, 0.0, 0.0, 0.0, 0.0, 0.0, -0.81, -2.49, -3.53, -3.82, -4.9, -3.44, -2.06, -1.76, 0.0, 0.0, 0.0, 0.0, 0.0, 0.0, 0.0, 0.0, 0.0, 0.0, 0.0, 0.0, 0.0, 0.0, 0.0, 0.0, 0.0, 0.0, -5.0, -10.0, -11.18, -9.83, 0.0, 0.0, 5.7, 4.6, 4.21, 4.96, 4.0, 2.17, 2.83, 4.83, 5.59, 6.21, 7.21, 6.36, 7.6, 4.83, 3.32, 0.0, -2.49, -8.22, -8.31, -8.28, -8.0, -5.4, 0.0, 14.22, 14.08, 9.48, 6.98, 7.27, 7.56, 8.53, 9.62, 10.19, 10.73, 10.09, 8.91, 8.38, 7.89, 7.2, 7.43, 7.96, 7.78, 8.44, 8.44, 8.54, 8.61, 7.62, 7.19, 6.65, 5.55, 4.0, 3.46, 1.97, 0.96, 0.83, 2.35, 0.69, 0.0, 0.0, 2.97, 0.0, -4.0, -2.83, -2.17, -1.32, -1.2, -1.94, -3.11, -4.21, -5.43, -6.44, -5.4, -3.82, -2.1, -1.54, 0.0, 2.35, 0.0, 0.0, 0.0, 0.0, 0.0, 0.0, 0.0, 0.0, 0.0, -3.82, 0.0, 0.0, 0.0, 0.0, 0.0, 0.0, -5.4, -10.8, -11.18, -11.18, -10.28, -11.18, 0.0, 5.95, 6.95, 5.53, 4.96, 4.96, 3.8, 7.6, 8.48, 8.94, 8.67, 8.0, 6.64, 3.11, 0.0, 0.0, -2.63, -5.98, -5.94, -3.16, 0.0, 7.8, 12.92, 11.68, 7.9, 6.69, 7.27, 7.56, 8.01, 8.85, 9.62, 10.19, 10.37, 9.76, 8.91, 8.38, 7.2, 7.43, 7.19, 7.51, 8.85, 8.85, 10.01, 9.69, 9.26, 8.85, 8.73, 7.93, 7.23, 5.62, 3.66, 1.71, -1.09, -0.93, -0.79, 0.0, 0.0, 0.0, 0.0, 0.0, -3.8, -7.2, -6.32, -2.17, -3.35, -4.0, -4.93, -6.4, -6.53, -5.86, -5.0, -3.49, -3.65, 0.0, 1.75, 2.35, 0.0, 0.0, 0.0, 0.0, 0.0, 0.0, 0.0, 0.0, -3.36, -3.82, -3.39, 0.0, 0.0, -4.8, -5.2, -3.68, -3.82, -10.8, -12.07, -12.52, -10.73, -10.73, 0.0, 7.59, 7.9, 6.95, 5.86, 6.64, 7.07, 8.94, 8.8, 11.03, 11.62, 5.0, 0.0, 0.0, -3.14, -2.57, 0.0, 10.66, 14.51, 13.03, 11.16, 10.55, 10.24, 9.3, 8.94, 8.22, 9.16, 9.62, 9.62, 10.19, 10.61, 10.01, 9.76, 9.17, 8.91, 8.38, 7.2, 6.67, 8.44, 9.62, 10.04, 10.61, 10.73, 10.12, 9.69, 9.92, 10.12, 9.11, 7.93, 7.5, 6.47, 3.23, 0.0, -3.34, -2.82, -1.1, 0.0, 0.0, -2.28, -1.4, -4.71, -7.6, -8.06, -5.59, -4.6, -6.45, -7.74, -7.03, -6.21, -5.95, -5.36, -4.2, 0.0, 4.0, 7.15, 2.35, 0.0, 0.0, 0.0, 0.0, 0.0, 0.0, 0.0, 0.0, -3.36, -3.82, -3.25, -5.0, -4.8, -5.0, -7.9, -8.22, -8.53, -10.8, -12.52, -12.52, -11.71, -13.41, 0.0, 0.0, 5.4, 3.68, 5.0, 4.8, 6.44, 7.81, 9.39, 9.83, 0.0, -4.24, -3.25, -3.14, -5.15, -4.23, 18.78, 15.78, 14.3, 12.27, 10.87, 10.61, 10.99, 10.18, 9.89, 9.53, 9.16, 9.46, 9.16, 9.66, 10.01, 9.76, 9.17, 8.44, 7.78, 6.9, 6.42, 6.87, 8.85, 10.8, 11.3, 11.62, 10.81, 10.12, 10.12, 9.97, 9.32, 7.74, 7.23, 7.93, 7.4, 6.07, 3.36, 0.0, -2.95, -1.45, 0.0, -2.97, -6.32, -4.46, -4.56, -7.81, -8.17, -7.41, -8.42, -8.72, -8.31, -7.68, -7.28, -6.64, -6.01, 0.0, 8.91, 8.3, 9.2, 2.35, 0.0, 0.0, 0.0, 0.0, 0.0, 0.0, 0.0, -2.81, -3.36, -3.82, -3.11, -4.8, -3.39, -5.4, -7.9, -10.04, -8.85, -10.01, -11.87, -12.79, -14.3, -14.75, -15.65, -10.75, -4.66, -4.81, 0.0, 0.0, 6.44, 7.59, 7.51, 8.18, 3.11, -3.68, -3.36, -6.4, -3.36, 0.0, 13.41, 10.12, 9.17, 12.72, 13.41, 13.7, 11.6, 11.2, 10.81, 10.18, 10.19, 9.82, 9.17, 9.88, 8.85, 8.85, 8.44, 7.54, 6.43, 5.27, 5.27, 7.82, 11.21, 11.18, 11.45, 11.34, 10.56, 10.85, 9.69, 8.54, 7.2, 5.81, 5.46, 4.61, 4.07, 4.21, 3.79, 3.17, 1.02, 0.0, 0.0, -3.32, -6.52, -7.13, -6.95, -9.32, -9.97, -10.12, -9.8, -9.67, -8.67, -9.42, -10.48, -6.01, 0.0, 8.67, 8.94, 9.54, 9.6, 2.28, 0.0, 0.0, 0.0, 0.0, 0.0, 0.0, 0.0, -2.81, -3.25, -6.2, -5.46, -4.6, -3.53, -5.6, -7.9, -10.04, -9.17, -9.17, -10.73, -9.48, -10.73, -11.99, -13.99, -12.16, -10.75, -11.06, -8.93, 0.0, 9.48, 5.4, 2.93, 3.04, 0.0, -2.19, -5.6, -5.8, -5.0, -3.68, 0.0, 9.17, 4.38, 7.2, 15.19, 16.09, 14.03, 11.13, 10.6, 10.04, 10.37, 9.17, 9.02, 9.36, 8.85, 8.24, 7.28, 6.7, 5.4, 2.93, 3.82, 8.22, 10.96, 11.06, 11.13, 10.8, 11.35, 9.8, 7.96, 4.9, 3.6, 3.14, 2.81, 1.83, 0.84, 0.89, 1.59, 3.17, 3.96, 2.62, 0.95, -1.04, -8.53, -8.18, -8.47, -9.89, -10.48, -9.26, -9.48, -8.67, -8.53, -9.3, -5.95, 0.0, 8.49, 8.33, 8.49, 9.33, 9.33, 1.96, 0.0, 0.0, 0.0, 0.0, 0.0, 0.0, 0.0, -2.81, -4.81, -5.2, -8.22, -11.6, -10.79, -8.85, -10.41, -11.6, -9.48, -9.48, -7.44, -6.0, -4.24, -4.38, -6.4, -7.78, -6.71, -6.95, -11.53, 0.0, 0.0, -2.72, -3.69, -6.8, -3.36, -2.45, -2.28, -2.71, -6.2, -5.7, -10.28, -0.0, 6.6, 10.43, 12.52, 11.62, 11.18, 12.14, 11.6, 10.25, 9.3, 10.09, 9.42, 8.53, 8.02, 7.95, 6.76, 6.45, 5.2, 3.68, 6.97, 10.6, 10.41, 10.04, 11.13, 12.39, 11.29, 9.21, 7.19, 4.24, 1.33, 1.13, 0.96, 0.0, 0.0, 0.0, 0.0, 0.83, 1.64, 1.72, 1.6, 0.87, -6.95, -8.34, -7.82, -8.42, -9.08, -8.97, -7.78, -6.7, -6.48, -5.06, -3.64, 1.32, 7.47, 8.49, 8.49, 9.83, 9.39, 1.96, 0.0, 0.0, 0.0, 0.0, 0.0, 0.0, -2.43, -2.35, -4.81, -6.44, -8.1, -8.53, -11.16, -12.39, -11.99, -13.28, -13.99, -13.7, -13.15, -12.04, -11.12, -9.8, -10.12, -10.12, -8.22, -6.64, -8.93, -13.99, -10.12, -7.59, -9.92, -11.06, -6.2, 0.0, 0.0, -2.1, -3.49, -5.2, -12.96, -0.0, 10.79, 11.62, 9.75, 9.75, 10.84, 11.28, 10.8, 9.17, 9.76, 9.36, 9.42, 8.64, 8.69, 8.22, 8.22, 7.56, 6.45, 5.2, 9.97, 10.7, 9.97, 11.03, 13.02, 13.02, 11.35, 10.36, 8.1, 5.4, 1.64, 0.0, 1.03, 0.95, 0.98, 0.95, 0.0, -0.97, -0.97, -0.8, 0.0, 0.83, 0.83, -8.59, -7.53, -8.17, -7.81, -7.68, -6.83, -6.31, -5.36, -4.67, -4.07, -0.74, 3.4, 8.49, 8.4, 9.2, 8.94, 1.96, 0.0, 0.0, 0.0, 0.0, 0.0, 0.0, -2.09, -2.35, -4.24, -5.8, -7.69, -8.87, -9.8, -10.12, -11.17, -13.42, -14.53, -14.7, -16.24, -16.7, -16.7, -15.77, -13.19, -12.81, -11.12, -8.23, -9.2, -12.04, -11.09, -6.67, -6.67, -8.53, 0.0, -7.9, -5.4, -1.91, 0.0, 5.4, 0.0, 14.3, 13.41, 11.62, 10.6, 8.93, 9.97, 10.52, 10.38, 9.58, 9.3, 10.16, 10.18, 10.18, 9.08, 8.79, 9.16, 9.17, 8.53, 7.24, 11.53, 11.14, 10.93, 13.25, 13.99, 14.18, 13.56, 11.9, 10.82, 8.85, 5.99, 4.39, 3.41, 3.0, 2.02, 0.92, 0.0, -0.92, -2.16, -3.29, -2.04, 0.0, 0.95, 3.69, -10.79, -8.48, -6.4, -6.7, -7.02, -6.04, -5.59, -4.87, -5.52, -3.15, 0.0, 5.69, 7.27, 6.95, 8.24, 1.96, 0.0, 0.0, 0.0, 0.0, 0.0, 0.0, -2.09, -2.02, -3.68, -5.28, -5.46, -7.32, -7.58, -7.44, -6.94, -6.08, -7.82, -9.66, -12.01, -12.45, -11.38, -11.77, -12.57, -8.05, -7.78, -7.51, -5.15, -6.98, -3.82, -2.1, 0.0, 8.22, 0.0, -4.8, -3.82, 0.0, 8.53, 11.87, 11.99, 13.15, 13.41, 12.07, 10.6, 9.75, 9.39, 10.41, 10.52, 9.96, 10.18, 10.05, 10.79, 10.79, 10.4, 10.17, 10.58, 10.56, 8.53, 7.82, 10.28, 10.28, 12.68, 14.1, 14.37, 14.64, 14.79, 14.65, 13.2, 11.21, 10.02, 8.1, 6.94, 5.11, 2.92, 0.99, 0.0, -1.29, -3.44, -4.39, -3.25, 0.0, 3.25, 3.96, 0.0, -10.73, -8.91, -7.58, -7.41, -6.32, -5.94, -6.23, -6.44, -3.51, 0.0, 2.06, 10.28, 6.95, 7.45, 1.96, 0.0, 0.0, 0.0, 0.0, 0.0, 0.0, -2.02, -2.02, -3.81, -3.81, -5.02, -6.6, -8.06, -7.6, -6.8, -4.52, -3.25, -3.14, -3.25, -3.02, -3.02, -1.9, -0.96, 0.0, 0.0, 0.0, 0.0, 0.0, 0.0, 0.0, 1.44, 4.32, 0.0, 0.0, 0.0, 6.17, 8.94, 11.03, 10.04, 10.41, 11.87, 12.07, 10.28, 9.83, 8.94, 9.83, 9.97, 8.8, 8.8, 8.77, 8.77, 9.11, 9.54, 11.62, 11.71, 11.62, 8.73, 5.2, 8.05, 11.91, 13.25, 13.5, 13.38, 13.86, 14.28, 14.53, 14.11, 12.18, 12.13, 11.68, 9.67, 6.31, 3.53, 1.09, 0.0, 0.0, 0.0, 0.0, 0.0, 2.6, 2.28, 2.45, 1.66, 3.96, -6.94, -7.59, -8.0, -7.47, -6.01, -5.59, -5.59, -3.09, -0.89, 0.0, 0.0, 8.05, 7.15, 1.96, 0.0, 0.0, 0.0, 0.0, 0.0, 0.0, -1.77, -1.77, -3.47, -3.47, -5.02, -6.6, -6.17, -7.82, -7.2, -6.19, -4.47, -4.05, -2.81, -2.81, -1.77, -0.87, 0.0, 0.0, 0.0, 0.75, 1.5, 1.45, 1.36, 0.61, 0.0, 0.0, 0.0, 0.0, 5.46, 5.63, 7.27, 7.27, 5.95, 6.45, 5.0, 7.9, 7.9, 8.8, 9.83, 7.2, 6.95, 8.93, 10.18, 9.83, 10.73, 0.0, 0.0, 0.0, -0.0, 10.28, 3.82, 2.91, 9.64, 11.21, 13.41, 13.33, 12.96, 12.07, 12.07, 12.07, 11.91, 11.6, 9.77, 10.99, 9.67, 5.86, 3.36, 1.22, 0.0, 8.93, 7.27, 5.46, 4.4, 3.11, 1.28, 1.13, 0.0, 1.77, 0.0, -1.83, -3.98, -4.6, -3.77, -5.63, -4.03, -2.51, -0.79, -0.89, 0.0, 2.99, 6.08, 1.96, 0.0, 0.0, 0.0, 0.0, 0.0, 0.0, -1.77, -1.77, -1.77, -3.1, -4.66, -4.66, -6.17, -5.98, -7.4, -6.84, -5.94, -4.42, -4.03, -2.8, -1.78, -0.87, -0.85, 0.0, 0.0, 0.0, 0.74, 0.69, 0.67, 0.6, 0.0, 0.0, 0.0, 0.0, 4.4, 6.17, 6.64, 6.71, 4.6, 2.6, 0.0, 0.0, 0.0, 6.64, 4.0, 4.0, 6.01, 8.0, 9.83, 10.28, 0.0, 0.0, 0.0, 0.0, -0.0, -8.49, -3.11, 0.0, 10.01, 10.75, 11.62, 11.18, 11.18, 11.18, 10.73, 11.18, 11.18, 9.6, 9.08, 8.22, 6.72, 4.47, 1.92, 0.0, 5.9, 8.93, 8.12, 6.42, 6.0, 5.35, 3.82, 2.6, 0.97, -2.82, -1.55, -1.33, -1.39, -1.33, -2.58, -2.39, -2.69, -2.26, -1.49, -0.73, 0.94, 4.46, 4.46, 1.72, 1.72, 0.0, 0.0, 0.0, 0.0, 0.0, 0.0, -1.58, -1.58, -3.2, -3.2, -4.66, -4.37, -5.81, -5.98, -5.65, -6.53, -5.0, -4.54, -2.97, -1.88, -1.78, -0.87, 0.0, 0.0, 0.0, 0.0, 0.0, 0.0, 0.0, 0.0, -0.73, 0.0, 0.0, 2.83, 6.95, 6.95, 5.0, 1.76, 0.0, 0.0, 0.0, 0.0, 0.0, 0.0, 3.8, 7.63, 8.05, 8.49, 8.49, 0.0, 0.0, 0.0, 5.69, 0.0, -6.01, -5.46, 0.0, 9.3, 10.08, 10.41, 9.75, 6.95, 8.4, 9.39, 8.49, 9.83, 9.75, 8.58, 4.4, 0.85, 0.0, -2.28, -2.19, 9.58, 10.8, 10.99, 9.67, 8.87, 7.9, 6.56, 6.08, 4.81, 1.52, -5.21, -5.1, -2.39, -2.17, -1.11, -1.04, -2.06, -1.49, -0.73, 0.0, 1.6, 3.45, 3.45, 1.72, 1.72, 0.0, 0.0, 0.0, 0.0, 0.0, 0.0, -1.58, -1.58, -3.2, -3.2, -4.37, -4.37, -4.5, -5.35, -5.35, -5.23, -5.0, -4.67, -3.24, -2.97, -1.88, 0.0, 0.8, 0.77, 0.0, 0.0, 0.0, 0.0, 0.0, 0.0, -0.77, -1.58, -2.17, 2.83, 5.21, 4.8, 1.69, 0.0, -1.76, 0.0, 0.0, 0.0, 0.0, 4.0, 6.32, 8.06, 8.49, 8.94, 8.0, 8.4, 8.4, 6.64, 6.64, 0.0, 0.0, 0.0, 6.71, 9.3, 8.94, 7.27, 5.46, 5.21, 2.97, 0.0, 0.0, 0.0, 9.39, 3.82, 0.0, -4.01, -5.8, -6.16, 3.68, 12.71, 13.19, 11.88, 10.95, 9.39, 8.57, 7.49, 7.03, 5.93, 5.2, 2.39, -7.6, -5.1, -3.8, -2.69, -1.54, -1.58, -1.07, 0.0, 0.0, 1.84, 3.3, 3.3, 1.72, 1.72, 0.0, 0.0, 0.0, 0.0, 0.0, 0.0, -1.63, -1.63, -1.63, -2.98, -2.98, -4.37, -4.37, -4.0, -4.12, -3.9, -4.01, -2.52, -3.37, -3.16, -1.94, 0.0, 0.82, 0.77, 0.0, -0.75, -0.75, -1.51, -1.51, -1.55, -1.62, -1.68, -2.81, -1.67, -2.17, -2.49, -1.76, -1.45, -2.39, 0.0, 0.0, 0.0, 6.32, 6.64, 7.44, 7.44, 7.81, 8.4, 6.64, 8.18, 8.18, 6.95, 5.46, 4.4, 4.4, 5.29, 7.59, 7.9, 6.71, 4.6, 4.4, 2.28, 2.28, 0.0, 0.0, -6.01, -8.8, -5.0, -2.45, -2.71, -3.41, 0.0, 11.38, 14.71, 12.65, 10.4, 8.16, 7.67, 6.24, 5.63, 4.66, 3.04, 2.71, 0.0, -6.32, -7.6, -6.79, -3.82, 0.0, 0.0, 0.0, 0.0, 0.0, 1.22, 1.04, 1.04, 1.72, 1.72, 0.0, 0.0, 0.0, 0.0, 0.0, 0.0, 0.0, -1.63, -1.47, -2.98, -3.07, -3.07, -4.37, -4.12, -4.24, -4.12, -2.8, -1.17, -2.21, -4.15, -4.3, -3.24, -1.38, -1.65, -1.62, -2.58, -3.92, -3.32, -3.42, -2.65, -1.78, -1.83, -1.94, -3.04, -4.07, -4.5, -3.99, -3.53, -2.02, 0.0, 0.0, 4.4, 5.46, 6.95, 6.95, 6.64, 6.64, 5.21, 6.95, 8.18, 6.95, 6.95, 6.95, 6.17, 5.06, 5.52, 5.75, 5.75, 3.98, 2.49, 1.93, 2.06, 2.17, 0.0, 0.0, -2.83, -6.3, -4.75, 0.0, 1.83, 3.87, 5.14, 6.81, 6.14, 3.39, 2.31, 1.83, 1.73, 0.89, 0.0, 0.0, 0.0, 0.0, 0.0, 0.0, 0.0, -9.6, 0.0, 4.4, 2.58, 0.99, 0.0, 0.0, 0.0, 0.0, 0.0, 1.72, 1.72, 1.72, 0.0, 0.0, 0.0, 0.0, 0.0, 0.0, -1.47, -1.47, -1.51, -3.07, -3.07, -4.5, -4.37, -4.24, -4.66, -4.3, -1.68, -3.33, -5.78, -7.2, -8.47, -7.4, -5.65, -5.23, -4.8, -3.89, -2.95, -2.04, -1.93, -0.97, -1.02, -1.06, -2.15, -3.14, -3.42, -2.82, -1.2, 0.0, 0.0, 1.84, 2.97, 3.63, 3.98, 4.4, 4.4, 4.2, 4.2, 5.21, 5.21, 6.64, 6.64, 6.32, 6.64, 6.7, 6.14, 3.82, 2.1, 0.0, 0.0, 0.0, 0.0, 0.0, 2.06, 0.0, 0.0, 0.0, 1.16, 3.68, 4.85, 5.6, 3.95, 1.7, -2.11, -5.78, -8.2, -4.41, -2.5, -1.78, -1.89, -1.95, -2.2, -1.2, 0.0, 2.49, 5.1, 6.2, 5.95, 2.6, 1.44, 0.0, 0.0, 0.0, 0.0, 0.0, 0.0, 1.72, 1.72, 1.72, 0.0, 0.0, 0.0, 0.0, 0.0, 0.0, -1.51, -1.47, -1.51, -3.07, -3.07, -2.8, -4.12, -3.88, -4.24, -4.81, -6.17, -4.88, -5.23, -6.84, -8.11, -7.6, -6.81, -4.54, -2.95, -2.04, -1.05, 0.0, 0.0, 0.0, 0.0, 0.0, 0.0, -1.05, -0.92, -0.77, -0.68, 0.0, 0.7, 0.75, 1.62, 2.47, 3.39, 3.65, 3.65, 3.49, 4.2, 4.0, 4.96, 4.96, 6.64, 7.87, 7.15, 7.9, 7.81, 5.52, 0.0, 0.0, 0.0, 0.0, 0.0, 2.83, 4.96, 5.21, 5.9, 6.7, 6.97, 8.1, 7.82, 7.22, 4.1, -0.89, -6.9, -11.72, -11.7, -10.54, -7.67, -5.21, -2.72, -0.95, 0.0, 0.0, 1.16, 2.6, 3.99, 3.25, 3.82, 0.0, -1.25, -1.04, -0.82, -2.04, 0.0, 0.0, 0.0, 1.72, 1.72, 1.72, 1.72, 0.0, 0.0, 0.0, 0.0, 0.0, 0.0, -1.51, -1.51, -1.51, -2.8, -2.8, -2.8, -4.0, -3.88, -5.67, -6.93, -5.71, -3.72, -3.9, -5.09, -5.71, -4.34, -3.03, -1.83, -0.92, 0.0, 0.0, 0.0, 0.0, 0.0, 0.94, 1.0, 0.0, 0.0, 0.0, 0.0, 0.0, 0.0, 0.67, 0.72, 1.47, 2.12, 1.69, 1.93, 2.28, 2.17, 3.8, 3.8, 4.71, 7.44, 8.0, 9.13, 9.21, 9.6, 7.59, 2.39, 0.0, 0.0, 0.0, 0.0, 6.64, 7.81, 8.4, 9.54, 10.14, 10.96, 11.61, 11.03, 9.31, 6.2, -8.53, -11.75, -13.87, -14.28, -13.68, -11.77, -8.99, -4.91, -1.89, 0.0, 0.99, 0.89, 1.02, 1.04, 0.0, 1.39, 0.0, -2.61, -3.42, -2.17, -1.05, 0.0, 0.0, 0.0, 1.72, 1.72, 1.72, 1.53, 0.0, 0.0, 0.0, 0.0, 0.0, 0.0, 0.0, -1.51, -1.56, -1.42, -2.8, -2.8, -2.72, -3.58, -4.81, -4.54, -4.67, -3.37, -3.18, -3.18, -3.24, -3.21, -2.09, -1.93, -0.94, -0.85, 0.0, 0.0, 0.0, 0.0, 0.92, 0.92, 0.95, 0.87, 0.76, 0.73, 0.0, 0.0, 0.65, 0.64, 1.22, 1.25, 1.62, 0.0, 0.0, 2.06, 1.95, 4.71, 6.01, 7.07, 8.67, 8.77, 9.29, 9.63, 8.24, 4.96, 0.0, 0.0, 0.0, 8.94, 8.94, 9.39, 9.21, 9.39, 9.83, 8.72, 10.6, 10.41, 3.87, 3.69, -7.9, -9.83, -13.57, -14.39, -13.93, -14.18, -12.07, -9.24, -6.2, -3.81, -1.96, -0.93, 0.0, -0.93, -2.71, -2.61, -1.65, -3.29, -3.51, -1.26, 0.0, 1.67, 1.4, 1.4, 1.72, 1.72, 1.72, 1.72, 0.0, 0.0, 0.0, 0.0, 0.0, 0.0, 0.0, -1.56, -1.56, -1.42, -1.42, -2.8, -2.8, -3.58, -3.79, -3.62, -3.47, -3.33, -4.15, -3.8, -2.8, -2.87, -1.93, -1.93, -0.97, -0.89, -0.85, 0.0, 0.0, 0.0, 0.89, 0.89, 1.88, 1.78, 1.57, 1.36, 0.64, 0.61, 0.68, 0.73, 0.69, 0.63, 0.0, 0.0, 0.0, 2.17, 2.17, 3.8, 6.01, 7.07, 8.06, 8.24, 8.05, 8.94, 8.23, 5.1, 2.69, -6.01, -0.0, 8.24, 8.77, 9.39, 9.29, 9.64, 8.94, 9.33, -0.0, -4.24, -0.85, 0.94, 3.42, 0.0, -12.52, -12.04, -12.5, -12.47, -12.59, -11.44, -9.8, -7.79, -6.15, -5.2, -4.13, -4.07, -4.2, -2.04, -1.54, -1.16, 0.0, 0.0, 0.0, 0.0, 1.47, 1.47, 1.72, 1.72, 1.72, 1.53, 1.53, 1.53, 0.0, 0.0, 0.0, 0.0, 0.0, 0.0, -1.56, -1.42, -1.42, -1.42, -2.57, -2.5, -3.42, -3.62, -3.37, -3.33, -4.38, -4.26, -3.79, -2.72, -2.79, -1.93, -1.83, -0.89, -0.94, 0.0, 0.0, 0.0, 0.89, 0.95, 0.95, 1.83, 1.67, 1.41, 1.2, 1.22, 1.3, 0.73, 0.7, 0.0, 0.0, 0.0, 0.0, 0.93, 1.94, 2.02, 3.8, 4.46, 7.07, 8.06, 8.49, 7.6, 6.32, 1.84, 2.39, 0.0, 4.0, 8.4, 9.26, 9.39, 9.39, 9.29, 10.28, 0.0, -8.94, -5.8, -1.18, 2.53, 4.26, 5.28, 4.45, 0.0, -11.8, -10.8, -11.83, -12.01, -11.8, -10.75, -9.06, -6.57, -5.29, -4.34, -3.32, 1.75, 5.46, 2.39, 1.62, 0.0, 0.0, 0.0, 3.32, 3.32, 1.72, 1.72, 1.72, 1.53, 1.53, 1.53, 0.0, 0.0, 0.0, 0.0, 0.0, 0.0, 0.0, -1.42, -1.42, -1.42, -1.3, -2.57, -2.38, -3.52, -3.28, -3.37, -3.33, -4.38, -4.26, -3.9, -2.8, -2.79, -1.93, -1.83, -0.94, -0.94, 0.0, 0.0, 0.0, 0.95, 0.95, 0.95, 1.83, 1.57, 1.94, 1.89, 1.93, 2.06, 1.45, 0.73, 0.0, 0.0, 0.0, 0.0, 0.85, 0.85, 1.93, 2.06, 4.71, 6.01, 5.69, 5.69, 0.0, 0.0, 1.62, 1.69, 6.32, 8.91, 9.39, 8.94, 10.28, 10.73, 9.97, 4.6, -2.6, -4.1, -0.96, 1.65, 3.96, 6.42, 7.14, 3.99, -2.65, -10.61, -11.6, -12.13, -11.72, -10.81, -8.53, -6.7, -4.83, -4.21, 0.0, 4.71, 4.2, 4.25, 2.6, 0.0, -2.39, 0.0, 5.21, 5.21, 1.72, 1.72, 1.72, 1.53, 1.53, 1.53, 0.0, 0.0, 0.0, 0.0, 0.0, 0.0, 0.0, 0.0, -1.42, -1.42, -1.3, -2.57, -2.38, -2.38, -3.28, -3.28, -3.16, -3.24, -3.24, -3.05, -2.97, -2.87, -1.88, -1.88, -0.94, -0.94, -1.0, -1.0, 0.0, 0.0, 0.0, 1.03, 1.03, 1.94, 2.55, 2.37, 2.76, 2.53, 2.02, 1.36, 0.73, 0.0, 0.0, 0.0, 0.0, 0.0, 0.0, 0.94, 1.95, 2.4, 2.54, 0.0, 3.2, 0.0, 0.0, 1.04, 0.0, 8.48, 9.83, 9.39, 10.73, 9.75, 8.8, 3.25, 0.0, -4.58, -3.29, 0.0, 3.38, 5.41, 4.82, 2.83, 0.0, -8.22, -10.41, -12.96, -11.79, -10.12, -8.57, -7.9, -6.14, -4.21, 0.0, 2.83, 0.0, 0.0, 1.77, 1.05, 0.0, 0.0, 5.95, 5.95, 1.72, 1.72, 1.72, 1.53, 1.53, 1.53, 1.53, 0.0, 0.0, 0.0, 0.0, 0.0, 0.0, 0.0, -1.38, -1.38, -1.3, -1.3, -2.38, -2.38, -2.21, -3.28, -3.07, -3.07, -3.16, -3.16, -2.97, -2.97, -2.05, -1.93, -1.93, -1.93, -1.0, -1.0, -1.0, 0.0, 0.0, 0.0, 1.13, 2.13, 1.95, 2.72, 3.07, 3.31, 3.25, 2.93, 1.79, 0.0, 0.0, 0.0, 0.0, 0.0, 0.0, 0.0, 0.0, 0.0, 0.0, 0.0, 3.2, 3.4, 0.0, 0.0, 0.0, 7.81, 9.39, 11.18, 9.96, 7.27, 0.0, 0.0, 0.0, -1.33, -3.6, -3.6, -2.13, -1.67, -1.57, -0.8, 0.0, -4.4, -8.24, -12.79, -13.32, -10.45, -9.21, -8.53, -7.27, -4.71, -1.84, 0.0, -3.82, -3.07, 0.0, 1.77, 3.6, 4.48, 5.98, 5.98, 1.72, 1.72, 1.72, 1.53, 1.53, 1.53, 1.53, 0.0, 0.0, 0.0, 0.0, 0.0, 0.0, 0.0, 0.0, -1.38, -1.26, -1.26, -2.31, -2.31, -2.21, -2.21, -2.07, -3.07, -3.07, -2.07, -2.07, -2.13, -2.05, -2.05, -1.93, -1.93, -1.93, -1.93, -0.97, -0.97, 0.0, 0.0, 0.0, 1.18, 2.21, 2.04, 2.82, 3.11, 2.7, 3.65, 1.76, 0.0, -1.64, -0.72, -0.74, -0.81, -0.85, -0.8, -0.74, -0.95, 0.0, 0.0, 0.0, 0.0, 0.0, -1.26, 0.0, 9.11, 10.28, 10.18, 10.32, 8.23, 0.0, -3.25, 0.0, -1.25, -1.9, -4.65, -8.72, -9.54, -7.91, -5.06, -1.83, 0.0, -5.63, -11.61, -13.48, -11.82, -8.87, -7.59, -6.53, -6.58, -5.32, -6.5, -6.98, -2.82, 4.48, 3.14, 6.0, 6.21, 6.21, 6.21, 1.72, 1.72, 1.53, 1.53, 1.53, 1.53, 1.53, 1.42, 0.0, 0.0, 0.0, 0.0, 0.0, 0.0, 0.0, -1.42, -1.26, -1.26, -1.17, -2.31, -2.21, -2.21, -2.21, -2.21, -2.21, -2.07, -2.01, -2.07, -2.0, -2.0, -1.88, -1.88, -1.88, -1.88, -1.93, -1.03, -1.03, 0.0, 0.0, 0.0, 1.15, 2.18, 2.06, 1.76, 1.58, 1.93, 0.0, -0.79, -3.02, -2.45, -2.42, -1.94, -1.67, -0.84, -0.83, -1.63, -1.96, -1.96, 0.0, 0.0, -1.73, -2.83, 0.0, 9.39, 9.39, 9.39, 9.83, 8.58, 3.49, -1.93, -4.4, -3.47, -0.86, -2.41, -7.11, -10.21, -9.42, -7.82, -4.21, -1.06, 0.0, -5.36, -10.48, -12.27, -10.68, -9.97, -9.48, -8.54, -7.68, -7.51, -5.4, 3.96, 8.01, 6.87, 6.96, 6.79, 6.56, 6.56, 1.66, 1.66, 1.53, 1.53, 1.53, 1.53, 1.53, 1.42, 0.0, 0.0, 0.0, 0.0, 0.0, 0.0, 0.0, 0.0, -1.3, -1.3, -1.2, -2.38, -2.38, -2.21, -2.21, -2.21, -2.21, -2.21, -2.15, -0.98, -1.01, -0.98, -2.0, -1.83, -1.83, -1.94, -2.0, -1.0, -1.03, 0.0, 0.0, 0.0, 1.27, 1.17, 1.08, 0.89, 0.0, -2.02, -1.97, -1.67, -1.1, -1.48, -1.28, -1.04, -0.83, -1.63, -1.6, -1.47, -1.96, -2.99, -2.09, -1.73, -2.66, -2.06, 4.71, 8.48, 8.48, 8.49, 8.49, 6.95, 0.0, -1.69, -5.46, -3.39, 0.0, 0.0, -1.54, -6.87, -8.62, -7.74, -6.85, -4.03, -1.73, -0.92, -2.5, -6.8, -10.02, -11.38, -11.53, -10.01, -9.02, -5.8, 0.0, 8.1, 7.54, 6.94, 6.53, 6.15, 6.56, 6.56, 1.66, 1.66, 1.48, 1.53, 1.53, 1.53, 1.53, 1.42, 0.0, 0.0, 0.0, 0.0, 0.0, 0.0, 0.0, 0.0, -1.3, -1.34, -1.23, -1.23, -1.23, -1.23, -2.21, -2.21, -2.21, -2.21, -2.15, -1.02, -1.46, -0.98, -1.94, -2.0, -2.0, -1.94, -1.94, -1.07, -1.07, 0.0, 0.0, 0.0, 0.0, 1.3, 1.15, 0.86, 0.0, -2.19, -2.97, -0.87, 0.0, 0.0, 0.0, -0.73, -0.71, -0.74, -0.72, -1.23, -1.7, -2.82, -2.99, -2.82, -1.32, 0.0, 6.01, 6.01, 6.32, 6.01, 0.0, -6.64, -3.25, -3.39, 0.0, 7.27, 0.0, 0.0, 0.0, -3.13, -6.9, -8.32, -7.19, -5.31, -4.01, -1.61, 0.0, 0.0, -2.23, -4.98, -7.23, -8.7, -7.1, -1.83, 3.44, 7.28, 7.51, 6.44, 6.31, 5.93, 5.4, 5.4, 1.48, 1.48, 1.48, 1.53, 1.53, 1.53, 1.53, 1.58, 0.0, 0.0, 0.0, 0.0, 0.0, 0.0, 0.0, 0.0, 0.0, -1.3, -1.3, -1.23, -1.23, -1.23, -1.23, -1.11, -1.08, -2.15, -2.15, -2.02, -1.96, -1.3, -2.09, -2.07, -2.13, -2.13, -2.13, -1.15, -1.15, 0.0, 0.0, 0.0, 0.0, 1.34, 1.19, 0.93, 0.0, -0.72, -1.51, -0.81, 0.0, -0.77, -0.67, -0.69, -0.74, -0.73, -0.71, -0.69, -0.64, -1.7, -1.98, -1.72, -0.82, 2.4, 4.96, 3.6, 3.8, 0.0, 0.0, -3.8, -6.95, -2.1, 2.02, 10.18, 5.2, -4.11, -1.67, -1.66, -3.38, -10.8, -10.8, -4.81, -2.56, -0.8, 0.0, 0.0, 0.0, -1.27, -2.72, -4.35, -3.22, 0.0, 3.96, 5.4, 5.4, 5.6, 4.81, 5.6, 4.58, 4.58, 2.91, 2.91, 1.48, 1.48, 1.53, 1.53, 1.53, 1.58, 0.0, 0.0, 0.0, 0.0, 0.0, 0.0, 0.0, 0.0, 0.0, 0.0, -1.3, -1.23, -1.23, -1.27, -1.23, -1.23, -1.08, -1.08, -2.15, -2.09, -2.89, -2.89, -1.95, -2.01, -2.07, -2.07, -2.28, -1.15, -1.15, 0.0, 0.0, 0.0, 0.0, 0.0, 1.26, 0.99, 0.0, 0.0, 0.0, -0.86, -0.92, -0.8, -1.39, -1.33, -1.43, -1.47, -1.44, -1.28, -0.67, -0.62, -0.7, 0.0, 0.0, 2.54, 3.6, 3.8, 0.0, 0.0, 0.0, -3.6, -4.2, 0.0, 3.65, 6.45, 0.0, -4.24, -4.91, -0.8, 0.78, 0.0, 0.0, -3.36, -3.09, -2.57, -1.65, -1.54, -1.47, -1.2, -1.23, -1.19, 0.0, 2.06, 3.82, 4.48, 4.12, 3.18, 2.93, 4.33, 4.06, 4.06, 2.91, 2.91, 1.48, 1.48, 1.53, 1.53, 1.53, 1.58, 0.0, 0.0, 0.0, 0.0, 0.0, 0.0, 0.0, 0.0, 0.0, 0.0, 0.0, -1.3, -1.23, -1.23, -1.23, -1.23, -1.11, -1.08, -2.15, -2.09, -1.95, -2.01, -1.89, -2.01, -2.01, -2.01, -2.07, -2.21, -1.15, -1.23, 0.0, 0.0, 0.0, 0.0, 1.26, 1.03, 0.0, 0.0, 0.0, 0.0, -0.96, -0.92, -1.52, -1.56, -2.11, -2.17, -1.52, -1.36, -1.28, -0.67, -0.62, 0.0, 0.0, 0.0, 3.6, 3.6, 0.0, 0.0, 0.0, 0.0, -4.0, 0.0, 0.0, 3.68, 0.0, -1.77, -3.39, 0.0, 3.92, 5.42, 3.32, 0.0, -4.07, -5.83, -4.75, -3.83, -2.17, -0.6, 0.0, 0.77, 1.9, 2.37, 4.08, 3.92, 3.34, 2.82, 1.98, 1.98, 3.55, 3.55, 2.91, 2.91, 2.91, 1.48, 1.53, 1.53, 1.58, 1.58, 1.47, 0.0, 0.0, 0.0, 0.0, 0.0, 0.0, 0.0, 0.0, 0.0, 0.0, 0.0, 0.0, -1.23, -1.23, -1.23, -1.2, -1.08, -2.15, -2.09, -1.95, -2.01, -2.01, -2.01, -1.95, -1.95, -1.95, -2.15, -2.21, -1.11, -1.23, 0.0, 0.0, 0.0, 1.42, 1.11, 0.0, 0.0, 0.0, 0.0, -0.96, -0.99, -0.89, -1.56, -1.62, -2.47, -1.52, -1.58, -1.49, -1.4, -0.67, 0.0, 0.0, 0.0, 0.0, 0.0, 2.54, 0.0, 0.0, 0.0, 0.0, 0.0, 0.0, 3.25, 2.2, 0.96, 0.0, 0.0, 1.6, 3.96, 3.11, 0.0, -3.46, -5.17, -5.91, -3.69, -1.72, 0.0, 0.86, 1.98, 2.28, 2.42, 2.42, 3.92, 3.34, 2.08, 1.77, 0.93, 1.84, 1.84, 2.81, 2.81, 2.91, 1.48, 1.53, 1.53, 1.58, 1.58, 1.47, 0.0, 0.0, 0.0, 0.0, 0.0, 0.0, 0.0, 0.0, 0.0, 0.0, 0.0, 0.0, -1.2, -1.23, -1.23, -1.2, -2.15, -2.15, -2.09, -2.09, -2.01, -2.01, -2.01, -1.95, -1.95, -2.09, -2.09, -2.09, -2.15, -1.2, -1.34, 0.0, 0.0, 0.0, 1.43, 0.79, 0.0, -0.77, -0.83, -0.92, -0.99, -0.93, -1.84, -1.69, -1.76, -1.75, -1.58, -1.49, -1.65, -0.74, -0.69, -0.64, -0.67, 0.0, 0.0, 0.0, 0.0, 0.0, 0.0, 0.0, 0.0, 0.0, 4.6, 5.6, 2.89, 0.0, -1.58, -2.56, -1.65, -2.38, -2.21, -2.17, -2.19, -2.04, -2.54, 0.0, 1.04, 1.77, 1.7, 2.0, 2.19, 2.28, 2.28, 2.28, 1.09, 1.0, 0.0, 0.0, 0.86, 2.81, 2.81, 2.91, 1.48, 1.53, 1.53, 1.58, 1.58, 1.63, 0.0, 0.0, 0.0, 0.0, 0.0, 0.0, 0.0, 0.0, 0.0, 0.0, 0.0, 0.0, -1.2, -1.2, -1.23, -1.2, -2.15, -2.09, -2.09, -2.09, -2.09, -2.01, -1.95, -1.95, -2.09, -2.09, -2.09, -2.02, -2.15, -2.31, -1.3, 0.0, 0.0, 0.0, 0.0, 0.75, 0.0, -1.44, -2.45, -2.81, -1.97, -2.06, -1.91, -1.76, -1.76, -1.6, -1.67, -1.65, -1.65, -0.74, -0.69, -0.64, -0.67, 0.0, 0.0, 0.0, 0.0, 0.0, 0.0, 0.0, 0.0, 0.0, 0.0, 3.82, 1.06, 0.8, 0.0, -2.64, -4.95, -5.01, -4.27, -1.45, 0.0, 0.0, 0.0, 0.0, 1.08, 1.77, 1.77, 1.91, 1.91, 2.08, 1.16, 1.16, 1.09, 0.0, 0.0, 0.0, 0.0, 2.81, 2.81, 2.81, 2.91, 1.53, 1.53, 1.58, 1.58, 1.63, 0.0, 0.0, 0.0, 0.0, 0.0, 0.0, 0.0, 0.0, 0.0, 0.0, 0.0, 0.0, -1.3, -1.2, -1.2, -1.2, -2.15, -2.09, -2.09, -2.02, -2.02, -2.09, -2.09, -2.09, -3.09, -3.0, -3.09, -3.0, -2.18, -2.5, -1.26, -1.42, -1.56, -1.63, -1.5, -1.18, -0.75, -2.41, -3.69, -3.22, -2.28, -2.13, -2.16, -1.92, -1.84, -1.6, -1.67, -1.75, -1.65, -1.73, -0.83, -1.52, -1.41, -0.76, -2.54, 0.0, 0.0, -2.4, -2.54, 0.0, 0.0, 0.0, 0.0, 0.0, 0.0, 2.5, 3.87, 1.51, -1.59, -4.85, -3.52, -1.54, 0.0, 0.0, 0.95, 1.11, 1.08, 1.97, 1.84, 1.98, 1.84, 0.97, 1.05, 0.0, 0.0, 0.0, 0.0, -0.93, 0.0, 2.81, 2.81, 2.81, 2.91, 1.48, 1.53, 1.53, 1.58, 1.58, 0.0, 0.0, 0.0, 0.0, 0.0, 0.0, 0.0, 0.0, 0.0, 0.0, 0.0, -1.26, -1.26, -1.17, -1.2, -2.38, -2.38, -2.09, -2.02, -2.02, -2.02, -2.02, -2.09, -3.09, -3.09, -3.0, -3.0, -3.0, -2.11, -2.35, -2.64, -1.47, -1.51, -1.58, -2.72, -5.2, -4.43, -3.69, -3.52, -2.64, -1.3, -1.25, -1.13, -0.97, -1.93, -1.75, -1.67, -1.75, -1.84, -1.84, -1.73, -1.63, -1.41, -1.84, -2.26, -2.4, -2.54, -2.4, -2.69, -2.4, -2.54, 0.0, -4.0, -4.8, -3.53, 2.06, 3.69, 3.2, 0.76, -1.54, -2.71, -2.52, 0.0, 1.11, 1.97, 1.08, 1.13, 1.09, 1.98, 1.77, 0.83, 0.0, 0.0, 0.0, 0.0, -0.93, -0.93, -1.98, -1.98, 2.72, 2.72, 2.81, 2.81, 1.48, 1.48, 1.53, 1.58, 1.58, 0.0, 0.0, 0.0, 0.0, 0.0, 0.0, 0.0, 0.0, 0.0, 0.0, 0.0, -1.26, -1.26, -1.17, -1.17, -2.31, -2.31, -2.09, -2.02, -2.02, -1.96, -2.9, -2.9, -3.0, -3.0, -3.0, -2.9, -3.12, -3.02, -2.28, -2.56, -2.81, -2.81, -2.72, -3.6, -4.99, -5.28, -3.09, -1.26, 0.0, 0.0, 0.0, 0.0, 0.0, 0.0, -0.89, -0.94, -1.0, -1.0, -1.95, -1.84, -1.73, -2.35, -2.29, -1.84, -2.4, 0.0, 0.0, -2.54, -2.26, 0.0, 0.0, -2.69, -4.6, -3.65, -5.2, -3.25, 0.0, 1.6, 1.61, 0.0, 0.0, 1.44, 1.98, 1.65, 1.65, 0.93, 0.97, 0.89, 0.0, 0.0, 0.0, 0.0, -0.83, -0.89, -1.71, -1.84, -1.84, -1.84, 2.72, 2.72, 2.81, 2.81, 1.48, 1.48, 1.53, 1.53, 1.53, 0.0, 0.0, 0.0, 0.0, 0.0, 0.0, 0.0, 0.0, 0.0, 0.0, -1.23, -1.26, -1.26, -1.17, -2.31, -2.31, -2.31, -2.24, -2.18, -2.9, -2.9, -2.81, -2.81, -2.81, -2.9, -3.0, -2.81, -3.02, -3.25, -2.4, -2.4, -2.72, -2.72, -2.63, -3.18, -2.82, -3.14, -2.35, -1.3, 0.0, 0.0, 0.0, 0.0, 0.0, 0.0, 0.0, 0.0, 0.0, 0.0, -1.0, -1.0, -1.84, -2.67, -3.0, -3.4, -2.4, 0.0, 0.0, 0.0, 0.0, 0.0, 0.0, -2.69, -5.21, -5.7, -7.15, -7.24, -2.81, 0.83, 3.99, 4.88, 5.49, 5.96, 3.87, 2.06, 0.7, 0.0, 0.0, 0.0, -0.8, -0.75, -0.75, -1.44, -1.54, -2.53, -2.53, -2.53, -2.53, -2.53, 2.72, 2.72, 2.81, 1.43, 1.48, 1.48, 1.53, 1.53, 1.58, 0.0, 0.0, 0.0, 0.0, 0.0, 0.0, 0.0, 0.0, 0.0, 0.0, -1.23, -1.26, -1.26, -1.26, -2.31, -2.31, -2.31, -2.24, -2.18, -3.12, -2.81, -2.81, -2.81, -2.81, -3.68, -3.68, -3.68, -2.92, -3.25, -2.4, -2.63, -2.63, -2.63, -2.54, -2.08, -2.0, -1.98, -2.4, -1.21, -1.21, -1.09, 0.0, 0.0, 0.0, 0.0, 0.0, 0.0, 0.0, 0.0, 0.0, -1.0, -1.0, -1.84, -3.2, -3.11, -3.6, 0.0, 0.0, 0.0, 2.4, 3.4, 0.0, -2.69, -5.21, -6.42, -5.95, -4.4, -1.25, 0.92, 3.93, 7.04, 9.43, 9.91, 7.64, 3.74, 0.69, 0.0, -0.81, -1.71, -2.31, -2.37, -2.06, -2.51, -2.61, -3.55, -3.32, -3.19, -3.19, -3.19, 2.72, 2.72, 2.81, 1.43, 1.43, 1.48, 1.48, 1.53, 0.0, 0.0, 0.0, 0.0, 0.0, 0.0, 0.0, 0.0, 0.0, 0.0, 0.0, -1.34, -1.23, -1.26, -2.5, -2.31, -2.31, -2.31, -2.24, -3.22, -3.12, -2.9, -2.81, -3.56, -3.56, -3.56, -3.56, -3.81, -2.92, -3.14, -2.4, -2.54, -2.54, -2.54, -2.54, -2.08, -2.0, -2.16, -2.32, -1.17, -1.17, -1.09, -0.93, -0.82, -0.81, -0.77, -0.73, 0.0, 0.0, 0.0, 0.0, 0.0, -0.94, -0.94, -1.73, -2.35, -2.29, 0.0, 0.0, 0.0, 0.0, 1.95, 0.0, -2.69, -4.96, -4.4, -2.49, 0.0, 0.0, 0.99, 3.47, 7.82, 10.05, 11.04, 9.0, 5.65, 3.73, 1.67, -0.84, -2.33, -4.1, -4.43, -3.47, -3.82, -3.97, -3.82, -4.47, -4.17, -4.17, -4.17, 2.72, 2.72, 2.81, 1.43, 1.48, 1.48, 1.48, 0.0, 0.0, 0.0, 0.0, 0.0, 0.0, 0.0, 0.0, 0.0, 0.0, 0.0, -1.34, -1.34, -1.23, -1.26, -2.5, -2.5, -2.31, -2.31, -3.32, -3.22, -3.12, -3.12, -3.68, -3.56, -3.56, -3.44, -3.44, -3.68, -3.04, -2.24, -2.54, -2.54, -2.54, -2.54, -2.54, -2.37, -2.0, -2.16, -1.13, -1.25, -1.25, -1.05, -0.97, -0.89, -0.81, -0.77, -0.73, -0.8, -0.8, -0.84, -0.89, -0.84, -0.89, -0.89, -0.83, -1.52, -0.82, 0.0, 0.0, 0.0, -2.06, -2.54, -2.06, -3.8, -4.0, -2.97, 0.0, 0.0, 0.0, 1.25, 5.36, 8.1, 8.72, 8.62, 8.82, 8.71, 7.14, 3.57, 0.0, -2.2, -4.1, -5.4, -5.64, -4.72, -4.54, -5.0, -4.62, -5.0, -5.0, -5.0, 2.72, 2.72, 1.43, 1.43, 1.43, 1.48, 1.53, 0.0, 0.0, 0.0, 0.0, 0.0, 0.0, 0.0, 0.0, 0.0, 0.0, 0.0, -1.34, -1.3, -1.3, -2.43, -2.5, -2.5, -2.31, -3.42, -3.32, -3.22, -3.12, -4.08, -3.68, -3.68, -3.56, -3.44, -3.68, -2.71, -2.93, -2.24, -2.45, -2.45, -1.25, -1.25, -2.45, -2.37, -2.0, -1.09, -1.25, -1.25, -1.2, -1.11, -0.97, -0.93, -0.85, -1.6, -1.58, -1.49, -0.76, -0.84, -0.84, -0.84, -0.84, -0.74, -0.78, -0.76, 0.0, 0.0, 0.0, 0.0, 0.0, 0.0, 0.0, -3.8, -4.0, -4.2, 0.0, 0.0, 0.0, 3.68, 6.4, 8.32, 7.89, 6.8, 8.71, 11.04, 9.5, 5.78, 1.43, -0.68, -5.6, -7.02, -8.53, -7.56, -6.71, -5.52, -6.0, -5.63, -5.63, -5.63, 3.04, 3.04, 1.61, 1.61, 1.43, 1.48, 0.0, 0.0, 0.0, 0.0, 0.0, 0.0, 0.0, 0.0, 0.0, 0.0, 0.0, -1.34, -1.34, -1.34, -1.34, -2.43, -2.5, -2.5, -2.5, -3.32, -3.32, -3.22, -4.08, -3.94, -3.94, -3.94, -3.81, -3.68, -2.81, -2.93, -2.16, -2.16, -2.37, -1.25, -1.25, -1.25, -1.25, -2.37, -1.16, -1.25, -1.29, -1.25, -1.16, -1.07, -0.93, -0.89, -1.76, -1.68, -1.67, -1.58, -1.49, -1.55, -1.55, -1.65, -1.65, -0.74, -0.72, -0.76, -0.81, -1.63, -1.63, 0.0, 0.0, 0.0, 0.0, -2.97, -6.64, -4.2, -4.2, 0.0, 0.0, 5.95, 8.73, 7.56, 6.94, 6.76, 8.18, 9.66, 8.1, 5.1, 0.0, -1.77, -4.58, -6.21, -8.93, -9.46, -8.41, -7.42, -6.57, -6.31, -6.31, -6.31, 1.55, 1.55, 1.61, 1.61, 1.61, 1.48, 0.0, 0.0, 0.0, 0.0, 0.0, 0.0, 0.0, 0.0, 0.0, 0.0, -1.47, -1.47, -1.34, -1.34, -1.34, -2.64, -2.5, -2.5, -3.58, -3.32, -3.32, -3.22, -4.08, -4.08, -3.94, -3.94, -3.81, -2.81, -3.04, -1.98, -2.16, -2.37, -1.2, -1.2, -1.2, -1.2, -1.2, -1.2, -1.2, -1.25, -1.29, -1.25, -1.16, -1.07, -1.02, -1.76, -1.76, -1.6, -1.67, -1.58, -1.58, -1.65, -1.55, -1.55, -1.55, -1.36, -1.41, -1.47, -0.81, -1.52, -3.47, -2.12, 0.0, 0.0, 0.0, 0.0, -2.97, -6.95, -4.2, -4.2, 0.0, 6.95, 8.93, 7.9, 7.02, 6.94, 6.96, 5.62, 4.69, 0.72, 0.0, -0.79, -3.49, -4.6, -5.75, -8.49, -9.3, -8.69, -7.42, -7.13, -7.13, -7.13, 1.55, 1.55, 1.55, 1.61, 1.61, 0.0, 0.0, 0.0, 0.0, 0.0, 0.0, 0.0, 0.0, 0.0, 0.0, -1.47, -1.47, -1.47, -1.47, -1.34, -2.64, -2.64, -2.43, -3.58, -3.58, -3.58, -3.32, -4.21, -4.08, -4.08, -3.94, -3.94, -2.92, -3.14, -3.04, -2.16, -2.16, -2.28, -1.16, -1.16, -1.33, -1.33, -1.33, -1.16, -1.2, -1.25, -1.29, -1.25, -1.2, -1.11, -2.02, -1.76, -1.76, -2.35, -2.44, -2.31, -2.54, -2.4, -2.4, -2.26, -2.26, -2.12, -2.2, -1.47, -1.47, -2.76, -3.72, -5.21, -6.36, -5.06, -5.37, -2.69, -2.97, -5.46, -6.95, -6.64, 0.0, 6.95, 9.2, 7.9, 5.98, 5.77, 5.08, 1.77, 0.0, 0.0, 0.0, -0.8, -3.15, -6.01, -3.49, -5.7, -8.24, -9.09, -8.15, -7.27, -7.27, -7.27, 1.55, 1.55, 1.55, 1.61, 1.61, 0.0, 0.0, 0.0, 0.0, 0.0, 0.0, 0.0, 0.0, 0.0, 0.0, -1.47, -1.47, -1.47, -1.47, -2.89, -2.64, -2.64, -3.58, -3.58, -3.58, -3.58, -4.21, -4.21, -4.08, -3.94, -3.94, -2.92, -3.14, -3.14, -2.24, -2.16, -2.37, -2.28, -2.28, -2.28, -2.52, -2.52, -1.28, -1.28, -1.28, -1.16, -1.2, -1.2, -1.2, -2.19, -2.1, -1.84, -1.76, -2.47, -2.57, -2.69, -2.54, -2.54, -2.4, -2.4, -2.9, -2.72, -2.2, -2.04, -2.29, -3.22, -4.74, -6.0, -6.36, -7.15, -7.21, -7.2, -6.79, -6.32, -8.8, -8.4, -6.64, 0.0, 4.6, 4.8, 6.2, 5.2, 2.62, -0.8, -0.74, -0.73, -0.71, 0.0, -1.18, -5.63, -4.37, -3.35, -6.64, -8.05, -7.68, -6.95, -6.95, -6.95, 1.55, 1.55, 1.55, 1.55, 0.0, 0.0, 0.0, 0.0, 0.0, 0.0, 0.0, 0.0, 0.0, 0.0, -1.47, -1.47, -1.47, -1.47, -2.89, -2.98, -2.64, -2.64, -3.88, -3.58, -3.58, -3.47, -4.52, -4.52, -4.38, -3.25, -3.25, -3.14, -3.14, -2.06, -2.24, -2.16, -2.37, -2.28, -2.28, -2.42, -2.52, -2.52, -2.52, -2.52, -1.23, -1.23, -1.16, -2.28, -2.28, -2.19, -2.1, -2.02, -2.59, -2.59, -2.7, -2.83, -2.69, -3.45, -3.27, -3.4, -3.2, -3.2, -3.0, -2.8, -3.11, -4.01, -4.01, -4.81, -5.95, -6.79, -7.37, -8.06, -7.89, -7.63, -8.05, -8.94, -9.39, 0.0, 0.0, 0.0, 3.39, 2.71, 0.86, 0.0, 0.0, 0.0, 0.0, -0.73, -1.9, -4.4, -5.95, -4.2, -5.03, -6.79, -7.15, -7.51, -7.51, -7.51, 1.55, 1.55, 1.55, 0.0, 0.0, 0.0, 0.0, 0.0, 0.0, 0.0, 0.0, 0.0, 0.0, -1.47, -1.47, -1.47, -1.47, -2.89, -2.89, -2.98, -2.98, -2.64, -3.88, -3.88, -3.47, -3.47, -3.47, -3.36, -3.36, -3.25, -3.25, -3.14, -3.14, -2.24, -2.24, -2.16, -2.37, -2.28, -2.28, -2.42, -2.42, -2.52, -2.52, -2.42, -2.42, -2.33, -2.33, -2.1, -2.1, -2.1, -2.1, -2.95, -2.59, -2.59, -3.65, -3.81, -3.63, -3.63, -3.45, -3.4, -3.4, -3.79, -3.55, -3.55, -3.33, -3.9, -4.36, -4.43, -5.72, -5.72, -6.7, -7.07, -8.48, -8.94, -8.94, -8.49, -9.39, -9.83, -7.27, -4.6, 0.0, 0.0, 0.99, 1.57, 1.6, 0.78, 0.0, -1.55, -2.82, -5.92, -7.36, -6.59, -5.36, -8.0, -8.4, -7.6, -7.6, -7.6, 1.38, 1.38, 0.0, 0.0, 0.0, 0.0, 0.0, 0.0, 0.0, 0.0, 0.0, 0.0, -1.58, -1.63, -1.47, -1.47, -2.89, -2.89, -2.89, -2.98, -2.98, -4.0, -4.0, -3.88, -3.76, -3.47, -3.47, -3.36, -3.36, -3.25, -3.14, -3.14, -3.29, -2.24, -2.24, -2.37, -2.37, -2.28, -2.42, -2.42, -2.42, -2.42, -2.42, -2.42, -2.33, -2.33, -2.33, -2.33, -2.02, -2.02, -2.95, -2.95, -3.51, -3.36, -3.65, -3.49, -3.81, -3.63, -3.8, -4.26, -4.26, -4.03, -3.79, -3.55, -3.9, -3.9, -4.36, -4.36, -4.43, -5.37, -5.37, -5.69, -6.01, 0.0, 0.0, 0.0, -9.39, -9.83, -9.97, -9.75, -7.27, -3.98, -1.2, 0.0, 0.8, 0.78, 0.0, -0.75, -2.95, -6.58, -8.58, -8.15, -8.23, -9.11, -9.11, -9.11, -9.11, -9.11, 1.38, 1.38, 0.0, 0.0, 0.0, 0.0, 0.0, 0.0, 0.0, 0.0, 0.0, -1.58, -1.58, -1.63, -1.47, -1.47, -2.89, -2.89, -2.89, -2.89, -2.98, -4.37, -4.0, -3.88, -3.76, -3.76, -3.76, -3.65, -3.25, -3.25, -3.14, -3.29, -3.29, -2.24, -2.16, -2.37, -2.37, -2.28, -2.52, -2.42, -2.42, -2.42, -2.42, -2.42, -2.33, -2.33, -2.33, -2.23, -2.02, -2.95, -2.95, -3.82, -3.51, -3.36, -3.65, -3.65, -3.81, -3.63, -4.74, -4.5, -4.26, -4.03, -4.03, -3.79, -4.16, -4.65, -4.65, -5.06, -5.05, -5.59, -6.08, -6.32, -5.69, -8.05, -8.49, -6.32, -8.4, -9.83, -10.28, -10.28, -9.2, -7.27, -5.0, -2.72, -0.77, 0.0, 0.0, 0.0, -0.85, -5.1, -8.77, -10.08, -9.6, -9.2, -9.11, -9.11, -9.11, -9.11, 0.0, 0.0, 0.0, 0.0, 0.0, 0.0, 0.0, 0.0, 0.0, 0.0, 0.0, -1.53, -1.58, -1.63, -1.63, -2.89, -2.89, -2.89, -2.89, -2.98, -2.98, -4.37, -4.0, -3.88, -3.76, -3.76, -3.65, -3.65, -3.53, -3.41, -3.41, -3.29, -3.29, -2.16, -2.37, -2.37, -2.28, -2.52, -2.52, -2.42, -2.42, -2.42, -2.71, -2.6, -2.6, -2.33, -2.33, -2.23, -2.95, -2.95, -2.95, -3.65, -3.51, -3.36, -3.65, -3.65, -3.81, -4.98, -4.74, -4.5, -4.5, -4.26, -4.26, -4.56, -4.29, -4.65, -5.06, -5.06, -5.38, -6.32, -6.52, -7.06, -6.94, -7.6, -8.05, -8.67, -8.4, -8.4, -9.64, -9.83, -9.97, -8.23, -7.15, -4.81, -3.2, -1.58, -0.79, 0.0, 0.0, -2.06, -8.4, -9.64, -10.08, -9.97, -9.39, -9.39, -9.39, -9.39, 0.0, 0.0, 0.0, 0.0, 0.0, 0.0, 0.0, 0.0, 0.0, 0.0, -1.53, -1.53, -1.58, -1.58, -3.2, -3.1, -2.81, -2.89, -2.89, -2.89, -2.98, -4.37, -4.37, -4.0, -3.76, -3.65, -3.65, -3.65, -3.53, -3.41, -3.41, -3.29, -3.29, -2.37, -2.37, -2.37, -2.37, -2.52, -2.52, -2.42, -2.42, -2.71, -2.6, -2.6, -2.6, -2.33, -2.23, -3.25, -3.25, -2.95, -2.95, -3.65, -3.65, -3.36, -4.4, -4.2, -4.56, -4.98, -4.98, -4.74, -4.5, -4.5, -4.83, -4.56, -4.56, -4.71, -5.06, -5.37, -5.68, -5.38, -6.07, -6.8, -7.15, -7.15, -7.6, -8.49, -8.67, -8.91, -8.4, -9.83, -9.97, -8.58, -7.15, -5.99, -4.61, -3.18, -2.4, -0.7, 0.0, 0.0, -6.64, -5.9, -9.33, -9.83, 0.0, 0.0, 0.0, 0.0, 0.0, 0.0, 0.0, 0.0, 0.0, 0.0, 0.0, 0.0, 0.0, -1.48, -1.53, -1.53, -1.58, -1.58, -3.1, -3.1, -3.1, -2.81, -2.89, -2.89, -4.24, -4.37, -4.37, -4.24, -3.76, -3.65, -3.65, -3.53, -3.53, -3.41, -3.41, -3.29, -3.47, -3.47, -3.47, -3.47, -3.82, -3.68, -3.68, -2.52, -2.71, -2.71, -2.71, -2.6, -2.6, -3.77, -3.25, -3.25, -3.25, -2.95, -3.65, -3.65, -3.65, -4.4, -4.4, -4.2, -4.56, -4.74, -4.98, -4.74, -5.36, -4.71, -4.46, -4.46, -5.0, -5.0, -5.37, -5.37, -6.01, -5.37, -5.72, -7.2, -6.36, -6.8, -6.4, -7.63, -8.06, -8.4, -8.4, -9.33, -9.75, -8.38, -7.27, -6.44, -4.87, -3.9, -2.34, -1.54, 0.0, 0.0, -4.2, -4.2, -0.0, 9.39, 9.39, 7.44, 7.44, 7.44, 0.0, 0.0, 0.0, 0.0, 0.0, 0.0, 0.0, 0.0, -1.43, -1.48, -1.48, -1.53, -1.58, -3.1, -3.1, -3.1, -3.1, -3.1, -3.1, -2.89, -4.24, -4.24, -4.24, -4.24, -4.11, -3.65, -3.65, -3.53, -3.53, -3.41, -3.41, -3.6, -3.47, -3.47, -3.47, -3.34, -3.68, -3.68, -3.68, -3.92, -3.92, -3.92, -2.71, -3.77, -3.77, -3.77, -3.39, -3.25, -4.18, -4.18, -3.65, -4.4, -4.4, -4.4, -4.2, -4.56, -4.56, -4.74, -4.74, -5.36, -4.96, -4.71, -4.71, -4.94, -4.94, -5.37, -5.37, -6.01, -6.01, -5.68, -5.38, -5.15, -4.98, -6.8, -6.71, -6.8, -8.49, -9.39, -9.39, -9.33, -9.55, -8.24, -7.27, -6.92, -5.8, -3.95, -2.32, -1.54, -0.74, 0.0, 0.0, -4.4, 0.0, 8.48, 8.0, 6.32, 6.32, 6.32, 0.0, 0.0, 0.0, 0.0, 0.0, 0.0, 0.0, 0.0, -1.43, -1.48, -1.48, -1.53, -1.58, -3.1, -3.1, -3.1, -3.1, -3.1, -3.1, -2.89, -4.24, -4.24, -4.24, -4.24, -4.11, -3.65, -3.65, -3.53, -3.53, -3.41, -3.41, -3.6, -3.47, -3.47, -3.47, -3.34, -3.68, -3.68, -3.68, -3.92, -3.92, -3.92, -2.71, -3.77, -3.77, -3.77, -3.39, -3.25, -4.18, -4.18, -3.65, -4.4, -4.4, -4.4, -4.2, -4.56, -4.56, -4.74, -4.74, -5.36, -4.96, -4.71, -4.71, -4.94, -4.94, -5.37, -5.37, -6.01, -6.01, -5.68, -5.38, -5.15, -4.98, -6.8, -6.71, -6.8, -8.94, -9.39, -9.39, -9.33, -9.55, -8.24, -7.27, -7.14, -5.72, -4.55, -3.2, -1.54, -0.74, 0.0, 0.0, 0.0, 0.0, 5.21, 5.63, 5.63, 5.63, 5.63]}]